[{"header": {"dx": 0.06612293990616946, "dy": 0.0552356325346848, "nx": 98, "ny": 59, "la1": 35.046912555036876, "la2": 31.78801023549047, "lo1": -121.43107172385933, "lo2": -114.95102361305473, "refTime": "2026041518", "parameterCategory": 1, "parameterNumber": 2}, "data": [6.46, 6.27, 6.29, 5.92, 5.7, 5.72, 5.71, 5.69, 5.65, 6.15, 6.28, 6.1, 7.12, 6.94, 6.65, 6.2, 3.48, 0.0, -1.7, -1.84, -3.22, -3.47, -3.48, -3.16, -3.35, -3.35, -2.23, -2.48, -2.0, -1.08, -1.08, 0.0, 0.0, 0.96, 1.99, 2.76, 2.76, 2.95, 3.16, 3.72, 4.57, 5.4, 6.08, 6.98, 8.55, 8.06, 9.05, 8.43, 7.82, 7.12, 6.64, 6.71, 6.17, 4.98, 4.43, 4.74, 5.15, 6.21, 6.57, 6.57, 6.16, 6.0, 5.6, 5.2, 5.94, 6.45, 6.88, 6.94, 7.37, 7.85, 7.37, 6.94, 6.64, 6.64, 6.64, 6.2, 6.26, 5.36, 4.92, 3.9, 3.2, 1.4, 1.4, 1.9, 1.58, 2.24, 4.02, 4.92, 4.8, 2.8, 1.73, 1.84, 1.84, 2.67, 2.67, 2.99, 2.82, 1.96, 6.46, 6.5, 6.29, 6.31, 5.95, 5.72, 5.72, 5.71, 5.69, 5.65, 5.86, 6.82, 6.8, 6.7, 7.63, 7.21, 4.98, 1.84, 0.0, -0.96, -1.98, -3.47, -3.47, -4.11, -3.72, -3.35, -2.84, -2.23, -1.08, -0.96, -0.96, 0.0, 0.0, 1.05, 2.16, 2.99, 2.6, 1.99, 1.99, 2.95, 4.11, 6.08, 6.98, 6.64, 7.68, 7.68, 7.15, 6.18, 6.0, 5.73, 5.81, 5.73, 5.6, 4.84, 4.81, 5.15, 5.95, 6.57, 6.57, 6.57, 6.16, 6.02, 5.94, 5.51, 5.94, 6.02, 6.45, 6.94, 7.37, 7.37, 7.42, 7.54, 7.15, 6.71, 6.26, 5.81, 5.81, 5.36, 4.92, 3.9, 3.2, 1.4, 1.4, 1.9, 1.58, 2.24, 4.02, 4.92, 4.8, 2.8, 1.73, 1.84, 1.84, 2.67, 2.67, 2.99, 2.82, 1.96, 6.46, 6.25, 6.27, 6.31, 5.92, 5.7, 5.72, 5.72, 5.41, 5.98, 5.65, 5.49, 7.2, 6.8, 6.4, 7.12, 6.57, 4.11, 0.0, 0.0, -0.96, -1.84, -3.22, -3.47, -4.84, -3.16, -2.23, -1.27, -1.08, 0.0, 0.0, 0.0, 0.0, 1.63, 2.16, 3.2, 1.84, 1.98, 1.98, 2.8, 4.16, 5.59, 6.53, 6.83, 7.68, 7.15, 6.21, 5.4, 4.92, 4.47, 4.4, 4.6, 4.54, 4.89, 4.46, 5.58, 6.16, 6.57, 6.7, 6.94, 6.88, 6.45, 5.94, 5.94, 5.94, 6.45, 6.45, 7.1, 7.54, 7.54, 7.6, 7.6, 7.54, 7.1, 6.2, 5.73, 5.36, 5.36, 3.47, 3.2, 1.6, 1.4, 1.4, 0.0, 0.0, 1.2, 3.2, 4.82, 3.93, 1.84, 0.84, 1.84, 1.84, 1.73, 2.82, 3.72, 2.8, 0.95, 6.43, 6.46, 6.5, 6.29, 6.07, 5.95, 5.72, 5.45, 5.71, 5.69, 5.69, 5.65, 7.2, 6.8, 6.6, 6.18, 6.82, 5.84, 2.8, 0.88, 0.0, 0.0, -1.7, -3.22, -4.11, -3.47, -2.2, -1.08, 0.0, 0.0, 0.0, 0.0, 0.0, 0.0, 1.63, 1.73, 1.4, 2.99, 2.54, 3.45, 5.06, 6.7, 6.53, 6.32, 6.45, 6.6, 6.45, 6.26, 5.29, 4.98, 4.22, 4.6, 4.98, 4.98, 5.6, 6.0, 6.45, 6.94, 6.94, 6.94, 6.88, 6.45, 5.94, 5.94, 6.02, 6.45, 6.94, 6.55, 7.11, 7.15, 8.05, 8.0, 6.7, 5.82, 4.84, 4.98, 4.82, 4.02, 3.13, 0.0, 0.0, 0.0, 0.0, 0.0, 0.0, 2.23, 3.72, 3.39, 0.89, -0.0, 0.89, 1.84, 1.84, 2.82, 3.72, 3.91, 2.16, -0.0, 6.43, 6.46, 6.5, 6.53, 6.31, 5.92, 5.7, 5.72, 5.72, 5.71, 5.69, 5.69, 7.15, 7.2, 6.6, 6.18, 5.77, 6.11, 4.58, 2.8, 1.98, 0.0, 0.0, -1.98, -2.16, -3.0, -1.63, -1.52, 0.0, 0.0, 0.96, 1.98, 0.89, 0.88, 0.0, 0.0, 1.52, 3.4, 2.57, 3.36, 4.4, 5.36, 6.11, 6.6, 6.57, 6.94, 7.1, 7.15, 7.1, 6.45, 5.94, 5.51, 5.51, 5.51, 5.94, 6.45, 6.94, 6.94, 7.37, 6.94, 6.45, 6.16, 5.6, 5.6, 6.45, 6.45, 6.45, 6.94, 6.94, 7.54, 7.15, 6.26, 4.38, 2.95, 1.99, 1.66, 3.35, 3.58, 2.24, 0.0, 0.0, 0.0, 0.0, 0.0, 1.27, 2.23, 2.8, -0.0, -0.0, -0.0, 0.89, 1.84, 1.84, 3.97, 4.74, 4.11, 0.96, -0.0, 6.43, 6.46, 6.25, 6.27, 6.29, 6.07, 5.95, 5.72, 5.72, 5.72, 5.71, 5.71, 6.73, 7.6, 7.53, 6.8, 6.11, 6.01, 5.69, 4.74, 3.48, 2.8, 2.84, 0.0, 0.0, 0.0, -1.98, -1.52, 0.0, 0.0, 0.96, 2.8, 4.74, 4.89, 2.84, 1.58, 0.0, 0.0, 0.0, 0.0, 1.65, 3.91, 4.43, 6.16, 6.57, 6.94, 7.1, 7.15, 7.15, 7.15, 6.64, 6.2, 6.17, 6.17, 6.64, 7.1, 7.1, 6.94, 7.37, 6.94, 6.45, 5.6, 6.0, 6.16, 6.16, 6.88, 6.45, 6.02, 6.45, 6.45, 5.51, 3.93, 1.27, 2.68, -2.53, -1.27, 0.0, 1.9, 0.0, -1.4, 0.0, 0.0, 0.0, 0.0, 0.98, 3.13, -0.0, -0.0, -0.0, -0.0, 0.89, 1.73, 2.82, 4.58, 5.58, 2.99, -0.0, -0.89, 6.43, 6.43, 6.46, 6.5, 6.29, 6.31, 5.69, 5.7, 5.72, 5.72, 5.44, 5.71, 6.73, 7.2, 8.22, 7.2, 7.2, 6.91, 6.11, 5.21, 4.47, 4.0, 4.0, 4.92, 5.36, 4.4, 0.0, 0.0, 0.0, 0.0, 0.0, 2.8, 4.74, 6.21, 5.09, 2.8, -0.0, -3.79, -5.81, -1.99, 0.0, 1.84, 4.11, 5.94, 6.26, 5.81, 6.26, 6.71, 6.71, 7.15, 7.15, 6.26, 6.26, 6.26, 6.71, 6.71, 7.1, 7.1, 7.1, 6.94, 6.45, 5.6, 6.0, 6.45, 6.45, 6.45, 6.45, 6.2, 6.17, 5.73, 4.8, 2.95, 0.96, -0.0, -1.27, -1.9, 2.24, 0.0, 0.0, -2.21, 0.0, 0.0, 0.0, 0.0, 1.13, 1.26, -0.0, -0.0, -0.0, -0.0, 0.82, 2.29, 4.29, 5.49, 5.58, 1.98, -0.0, -0.0, 6.43, 6.43, 6.46, 6.5, 6.27, 6.29, 6.33, 5.95, 5.98, 5.72, 5.72, 5.1, 6.32, 6.45, 7.81, 7.03, 7.6, 7.42, 6.44, 6.0, 4.47, 4.0, 4.98, 5.6, 6.36, 6.94, 5.21, 3.79, 4.02, 0.0, 0.0, 1.63, 3.72, 6.0, 4.47, 2.23, -0.0, -2.2, -4.8, -4.47, 3.58, 4.02, 4.4, 5.51, 5.21, 5.58, 5.2, 5.94, 5.73, 6.71, 5.81, 6.26, 6.26, 6.26, 6.71, 6.71, 7.15, 6.71, 6.71, 6.2, 5.51, 5.51, 6.17, 5.51, 5.51, 6.45, 6.64, 6.2, 5.81, 5.26, 4.4, 3.48, 2.2, 0.96, 1.05, 0.98, 1.6, 2.24, 2.24, -3.13, -2.97, 0.0, 0.0, 0.99, 1.2, 2.24, 0.87, -0.0, -0.0, -0.0, 0.96, 2.53, 4.89, 5.49, 4.19, 0.95, -0.0, -0.0, 6.43, 6.43, 6.46, 6.25, 6.27, 6.29, 6.31, 6.33, 5.7, 5.72, 5.72, 4.45, 6.58, 5.36, 5.53, 5.53, 6.79, 6.79, 6.11, 5.37, 5.36, 5.36, 4.4, 4.65, 4.54, 5.72, 5.06, 4.56, 6.0, 3.79, 0.0, 3.58, 3.16, 4.84, 4.98, 3.22, -0.0, -1.52, -0.0, -0.0, -0.0, 1.52, 3.0, 3.2, 4.56, 3.91, 6.08, 6.08, 6.16, 6.45, 7.01, 5.81, 6.26, 6.64, 6.64, 6.65, 6.64, 6.26, 5.81, 5.36, 5.36, 4.92, 4.92, 4.92, 5.26, 5.81, 6.71, 6.26, 5.81, 5.36, 4.92, 3.95, 3.82, 2.21, 1.98, 2.48, 2.48, 2.23, -0.0, -2.24, -3.82, -1.2, 0.0, 2.21, 2.97, 3.13, 2.6, 1.41, 0.98, 0.98, 1.8, 2.68, 4.19, 4.74, 3.0, 1.01, -0.0, -0.0, 6.43, 6.43, 6.46, 6.46, 6.5, 6.53, 6.56, 6.33, 6.08, 5.7, 5.72, 5.72, 6.01, 5.71, 5.63, 3.8, 4.5, 4.68, 4.74, 4.47, 4.0, 3.48, 1.7, 1.98, 1.98, 3.47, 3.47, 3.0, 4.74, 5.51, 2.2, -0.0, -0.0, 3.2, 4.56, 4.74, 1.98, -0.0, 1.63, 1.63, 2.8, 2.8, 2.8, 2.99, 4.11, 4.89, 5.21, 6.57, 7.12, 7.12, 6.94, 7.15, 6.65, 6.88, 6.57, 6.57, 6.16, 5.51, 4.82, 4.47, 4.02, 4.02, 4.92, 4.02, 4.92, 5.81, 6.64, 5.75, 5.29, 5.26, 5.26, 4.47, 4.02, 3.13, 2.54, 2.8, 2.53, 2.84, 2.21, -0.0, -2.24, -2.21, 0.0, 1.9, 3.39, 4.02, 3.95, 3.6, 2.53, 1.98, 2.53, 3.22, 3.79, 4.19, 3.0, 1.84, 1.01, -0.0, 6.43, 6.43, 6.46, 6.46, 6.5, 6.27, 6.29, 6.31, 6.33, 6.34, 6.08, 6.34, 7.6, 7.55, 8.02, 5.1, 2.99, 1.0, -0.0, -0.0, -0.0, 1.41, 1.19, -0.0, -0.0, -0.0, -0.0, -0.0, 1.98, 3.72, 3.2, 1.84, 2.12, 3.22, 4.11, 4.74, 4.29, 2.82, 2.8, 3.72, 4.74, 3.91, 3.22, 3.22, 3.22, 3.79, 5.6, 6.45, 6.94, 7.54, 7.54, 7.15, 7.1, 6.88, 6.21, 5.49, 4.43, 3.79, 2.84, 2.68, 1.6, 2.0, 3.48, 4.77, 5.36, 6.02, 6.16, 5.6, 4.98, 4.6, 4.98, 4.57, 4.38, 3.9, 3.13, 2.68, 2.24, 3.13, 3.2, 1.6, 1.34, -1.2, -0.99, 0.85, 2.6, 3.95, 4.47, 4.47, 3.9, 3.47, 3.47, 3.72, 3.48, 4.11, 3.91, 3.0, 1.84, 0.95, 6.43, 6.22, 6.46, 6.46, 6.25, 6.5, 6.53, 6.56, 6.31, 6.33, 6.33, 6.71, 7.61, 8.5, 8.65, 7.23, 4.9, 2.63, 0.99, 0.57, -0.0, -0.0, -0.0, -0.0, -1.55, -1.55, -2.2, -0.0, -0.0, 1.84, 3.0, 3.97, 4.19, 3.63, 4.11, 3.63, 4.43, 4.19, 4.43, 4.43, 4.89, 4.11, 2.95, 1.7, 1.7, 2.95, 5.58, 6.0, 6.94, 7.15, 6.26, 6.2, 6.17, 5.36, 4.77, 3.93, 2.95, 0.0, -1.4, -1.27, -0.0, 1.96, 3.72, 4.89, 6.17, 6.64, 6.16, 4.74, 3.22, 2.99, 3.79, 4.19, 4.6, 3.93, 3.72, 2.53, 2.21, 2.24, 1.79, 2.4, 2.8, 2.24, 0.0, 0.0, 1.13, 2.84, 4.15, 4.38, 4.47, 4.02, 3.58, 3.47, 3.6, 4.4, 4.29, 3.63, 2.8, 1.98, 6.22, 6.22, 6.46, 6.46, 6.25, 6.5, 6.27, 6.53, 6.96, 6.7, 6.97, 6.97, 7.33, 8.53, 9.59, 10.16, 8.79, 6.61, 4.02, 2.24, 1.34, 0.45, 0.0, -0.0, -0.63, -1.2, -0.95, -0.0, -0.0, 0.54, 2.76, 3.72, 3.47, 3.91, 3.63, 4.11, 4.19, 4.98, 4.6, 4.6, 4.29, 2.95, 1.08, -0.0, -0.0, 1.84, 3.47, 4.43, 5.21, 5.21, 4.57, 4.22, 2.68, 2.0, 2.4, 2.2, 4.47, 0.0, -4.34, -3.72, -0.0, 1.75, 3.77, 3.72, 5.24, 6.36, 5.81, 4.29, 0.96, 0.96, 1.99, 2.99, 2.76, 2.2, 1.27, 0.0, 0.0, 0.0, 0.0, 1.26, 2.68, 3.13, 1.79, 1.79, 0.0, 1.27, 2.48, 2.84, 3.6, 3.6, 3.47, 3.13, 3.58, 4.47, 5.26, 4.6, 4.11, 2.99, 5.77, 6.22, 6.46, 6.46, 6.46, 6.25, 6.92, 6.94, 6.94, 6.96, 6.96, 7.61, 7.61, 7.95, 9.13, 10.23, 9.88, 8.79, 7.26, 5.26, 3.39, 2.12, 0.63, 0.0, 0.45, -0.45, -0.63, -0.0, -0.0, -0.0, 0.59, 1.98, 3.0, 2.99, 3.63, 3.79, 4.57, 4.4, 4.34, 3.72, 2.48, 0.98, -0.0, -0.0, -0.0, -0.0, 0.96, 3.47, 3.47, 3.72, 3.47, 1.84, -0.0, -0.0, -0.0, 2.76, 5.21, 4.02, -3.16, -3.55, -1.84, 1.47, 2.69, 2.69, 2.82, 3.72, 3.35, 2.97, 2.0, 0.0, 0.0, -1.19, -2.84, -3.58, -3.58, -3.13, -2.8, -2.8, -1.4, 0.0, 1.4, 2.68, 1.79, 1.26, 1.79, 2.24, 0.0, 0.0, 0.99, 2.98, 2.98, 2.84, 3.2, 4.34, 4.47, 5.26, 4.6, 3.79, 5.77, 5.77, 6.46, 6.46, 6.46, 6.46, 6.92, 6.92, 6.94, 6.94, 7.6, 7.6, 7.95, 7.95, 8.85, 9.08, 9.5, 9.35, 8.51, 7.31, 5.81, 3.88, 2.68, 1.26, 0.0, 0.0, -0.0, -0.0, -0.0, -0.0, -0.0, 1.08, 2.66, 3.0, 3.0, 4.74, 5.6, 4.34, 4.47, 2.21, 1.13, -0.0, -0.0, -1.55, -0.0, -0.0, -0.0, -0.0, 1.41, 1.52, 1.52, -0.0, -0.0, -0.0, 1.52, 3.47, 4.74, 3.58, 2.53, -0.0, -0.94, -0.0, 1.49, 1.49, 1.49, 1.49, 1.4, 3.72, 5.09, 0.0, -2.73, -4.92, -4.98, -3.91, -2.99, -3.16, -3.82, -3.58, -2.21, 0.0, 0.0, 0.0, 0.0, 1.34, 1.58, 1.6, -0.0, -2.24, 0.0, 2.21, 2.84, 1.8, 2.41, 3.22, 4.82, 5.26, 4.4, 4.4, 5.77, 5.77, 6.46, 6.46, 6.46, 6.46, 6.9, 6.92, 6.92, 7.59, 7.33, 7.96, 7.96, 8.24, 8.56, 8.53, 9.02, 9.21, 8.55, 8.15, 6.95, 5.6, 4.4, 3.2, 2.17, 1.79, 1.7, 0.6, -0.0, -0.0, -0.0, -0.0, 0.55, 1.4, 1.25, 2.47, 4.29, 3.9, 3.58, -0.0, -0.0, -0.0, -2.2, -1.55, -1.55, -0.0, -0.0, -0.0, -0.0, -0.0, -0.0, -0.0, -0.0, 1.84, 1.84, 3.22, 3.22, 3.47, 3.2, 1.49, -0.0, -0.0, 1.84, 1.84, 3.47, 3.72, 3.22, 6.08, 6.8, 4.92, -3.13, -3.63, -3.55, -1.84, -0.0, -0.0, -1.27, -3.58, -2.53, -1.27, -1.27, 0.0, 0.0, 0.0, 1.79, 1.58, 1.27, -0.0, -0.0, 2.68, 3.13, 0.98, 2.41, 3.58, 4.15, 4.47, 4.47, 4.47, 5.77, 5.77, 6.22, 6.46, 6.46, 6.46, 6.9, 6.9, 7.16, 7.32, 7.59, 8.24, 8.24, 8.24, 7.95, 8.24, 8.5, 8.73, 8.65, 8.27, 7.23, 6.28, 5.08, 4.19, 3.98, 4.02, 3.13, 1.79, -0.0, -0.51, -0.57, -0.0, -0.59, -0.0, -0.0, -0.0, 0.96, -0.0, -0.0, -0.0, -0.0, -0.0, -0.0, -1.08, -1.7, -0.0, -0.0, -0.0, -0.0, -0.0, -0.0, -0.0, 1.7, 1.7, 2.98, 2.98, 3.22, 3.22, 3.47, 2.8, 1.84, 1.7, 2.2, 3.48, 3.79, 3.16, 5.21, 5.58, 5.58, 3.16, -4.11, -4.01, -2.82, -0.89, -0.0, 1.84, 1.14, -0.0, -2.8, -2.84, -2.48, -1.08, -1.08, 0.0, 0.0, 0.0, 1.4, 1.6, 2.53, 2.53, 0.0, 0.0, 0.79, 2.84, 4.0, 3.6, 3.47, 3.47, 5.77, 5.77, 6.22, 6.22, 6.46, 6.46, 6.9, 6.9, 7.16, 7.57, 7.85, 7.96, 8.24, 7.96, 7.95, 7.93, 8.22, 8.78, 8.65, 8.43, 7.76, 7.2, 6.1, 5.09, 4.89, 4.44, 3.6, 1.7, -0.0, -0.51, -0.51, -0.57, -1.07, -1.67, -2.29, -3.45, -2.67, -3.2, -1.52, -1.98, -1.63, -1.63, -0.0, -0.0, -0.0, -0.0, -0.0, -0.0, -0.0, -0.0, -0.0, -0.0, 2.2, 2.2, 3.79, 3.79, 3.79, 3.79, 3.79, 3.79, 3.79, 3.48, 4.0, 4.47, 4.47, 3.82, 4.34, 6.07, 4.84, 2.4, -0.0, -1.99, -1.98, -0.0, 0.95, 2.82, 3.55, 2.16, 1.27, -0.0, -1.9, -3.13, -2.84, 0.0, 0.0, 0.0, 2.24, 1.2, 1.13, 2.48, -0.0, 0.0, 0.0, 1.98, 3.35, 2.53, 1.9, 1.9, 5.77, 5.77, 6.22, 6.22, 6.22, 6.46, 6.9, 6.9, 6.9, 7.57, 7.57, 8.23, 7.96, 8.24, 7.95, 8.66, 7.32, 7.9, 7.81, 8.27, 8.68, 8.15, 6.56, 6.8, 5.51, 4.8, 0.6, 1.79, -0.0, -0.61, -0.51, -0.59, -1.11, -2.2, -3.22, -4.12, -4.45, -4.12, -4.74, -4.29, -2.99, -2.16, -0.0, -0.0, 1.32, 1.84, -0.0, -0.0, -0.0, -0.0, -0.0, -0.0, 2.2, 2.2, 3.79, 3.79, 3.48, 3.48, 3.48, 4.4, 4.4, 4.4, 4.4, 3.58, 3.58, 3.58, 4.47, 5.36, 5.51, 6.4, 6.08, 4.43, 4.74, 3.91, 3.91, 3.72, 3.72, 2.64, 2.64, 1.98, -1.19, -3.72, -4.02, -1.9, 0.0, 2.24, 1.79, -0.0, -0.0, 1.98, 1.27, 2.24, 0.0, 0.0, 2.8, 2.21, 1.9, 1.9, 5.77, 5.77, 5.77, 6.22, 6.22, 6.68, 7.13, 7.13, 6.9, 7.57, 7.57, 8.23, 8.23, 8.24, 7.96, 7.61, 6.98, 6.98, 7.78, 7.97, 9.04, 7.44, 6.87, 6.73, 4.89, 2.4, -2.24, -1.24, -0.65, -0.0, -0.0, -0.61, -1.13, -2.23, -2.86, -3.79, -4.11, -4.65, -4.07, -3.43, -2.23, -1.8, -0.0, 0.55, 2.2, 2.8, 1.55, -0.0, -0.0, -0.0, -0.0, -0.0, 1.7, 1.7, 2.2, 2.95, 4.46, 3.35, 3.82, 4.47, 4.47, 4.47, 4.47, 4.47, 3.58, 3.58, 4.47, 5.26, 6.45, 7.12, 8.56, 10.41, 11.05, 9.35, 7.1, 5.4, 3.79, 2.99, 2.64, 1.84, -0.0, -1.99, -4.0, -3.58, -3.13, -2.24, 1.79, 1.34, -0.0, 1.2, 2.23, -0.0, -0.0, 1.79, 1.79, 2.68, 2.24, 2.24, 5.77, 5.77, 5.77, 6.22, 6.22, 6.46, 7.13, 7.13, 7.13, 7.55, 7.57, 7.96, 8.23, 8.24, 7.96, 7.61, 6.98, 6.35, 5.72, 7.36, 7.59, 5.1, 5.72, 5.69, 4.84, 2.17, -0.0, -0.57, -0.0, -0.0, -0.0, -0.54, -1.2, -1.84, -2.51, -3.16, -3.43, -3.43, -3.43, -2.84, -2.51, -1.8, -0.57, -0.0, 1.16, 2.66, 1.7, -0.0, -0.0, -0.0, -0.0, -0.0, 1.7, 1.7, 3.22, 3.22, 4.29, 4.15, 4.92, 4.47, 4.47, 4.47, 4.47, 4.47, 3.13, 3.39, 3.9, 5.26, 5.94, 7.12, 9.06, 10.73, 11.05, 9.49, 6.94, 4.92, 2.53, 3.22, 2.8, 2.8, 1.98, -0.0, -2.0, -3.39, -3.13, -2.68, 0.0, 0.0, 0.0, 1.79, 2.21, 1.27, -0.0, -0.0, -0.0, 1.79, 1.79, 1.79, 5.8, 6.0, 6.0, 6.46, 6.46, 6.46, 7.13, 7.13, 7.13, 7.55, 7.83, 8.22, 8.23, 7.96, 8.24, 7.61, 6.98, 6.34, 6.98, 6.98, 6.01, 3.85, 4.08, 4.46, 5.65, 4.8, 2.68, 0.63, -0.0, -0.0, -0.0, -0.57, -1.24, -1.61, -2.21, -2.53, -2.79, -2.79, -2.53, -2.23, -1.8, -1.8, -1.23, -0.54, 0.53, 1.7, 1.41, -0.0, -0.0, -0.0, -0.0, 1.41, 1.7, 1.7, 1.7, 3.22, 4.54, 5.4, 4.92, 3.16, 2.53, 3.35, 3.39, 3.13, 3.13, 3.39, 3.82, 4.77, 4.98, 7.06, 8.06, 7.6, 3.72, 1.08, 1.2, 2.24, 2.0, 1.98, 1.66, 1.83, 2.8, 2.47, 0.96, -0.0, -1.6, -2.68, 2.24, 2.24, -2.24, 0.0, 1.34, -0.0, -0.0, -0.0, -0.0, 2.24, 2.24, 2.24, 5.8, 5.8, 5.8, 6.46, 6.46, 6.46, 7.13, 7.13, 7.13, 7.55, 7.83, 8.22, 7.96, 8.23, 8.24, 7.33, 6.97, 6.98, 6.98, 7.6, 7.51, 5.06, 3.47, 3.42, 4.75, 5.29, 3.88, 2.12, 0.89, -0.0, -0.0, -0.6, -0.8, -1.24, -1.9, -2.5, -2.21, -2.53, -2.23, -1.84, -1.8, -1.27, -1.11, -0.55, -0.0, -0.0, -0.0, -0.0, -0.0, -0.0, -0.0, 1.52, 1.41, 1.84, 1.7, 3.22, 4.11, 4.89, 5.36, 1.27, 1.08, 2.53, 2.8, 2.68, 2.68, 3.13, 3.82, 3.9, 4.77, 5.29, 6.4, -0.0, -6.17, -5.09, -2.84, -1.26, 0.89, -0.0, -0.0, 0.98, 1.83, 1.98, 2.12, 1.98, 0.96, -0.0, -0.0, -1.19, -2.2, -3.72, -2.68, -1.79, -0.0, -0.0, 1.58, 2.24, 1.79, 1.79, 5.8, 5.8, 5.8, 5.8, 6.46, 6.46, 6.9, 7.13, 7.13, 7.55, 7.55, 8.22, 8.22, 8.23, 7.59, 7.33, 6.97, 6.97, 7.61, 7.61, 7.86, 6.52, 4.43, 3.47, 4.1, 4.75, 4.11, 3.07, 1.2, 0.45, -0.0, -0.0, -0.95, -1.26, -1.58, -1.58, -1.9, -1.88, -1.61, -1.84, -1.13, -1.27, -1.11, -1.11, -1.23, -0.55, -0.0, -0.0, -0.0, -0.0, -0.0, 1.32, 1.52, 1.52, 1.84, 3.22, 3.22, 3.63, 4.84, 3.16, 0.0, 0.0, 2.24, 1.79, 1.9, 3.2, 3.82, 4.66, 4.47, 5.36, 6.17, -5.21, -6.71, -5.26, -5.09, -4.92, -4.02, -3.58, -0.0, -0.0, 0.98, 1.83, 1.7, 1.72, 2.64, 1.84, -0.0, -0.0, -0.0, -1.27, -4.02, -3.13, -1.79, 1.34, 1.79, 1.79, 1.79, 1.79, 5.8, 5.8, 5.8, 5.8, 6.46, 6.46, 6.9, 7.13, 7.13, 7.55, 7.55, 8.22, 8.22, 8.23, 7.59, 7.6, 6.96, 7.61, 7.33, 7.61, 7.6, 7.23, 6.23, 4.43, 3.47, 4.12, 4.12, 2.86, 1.86, 0.89, 0.45, 0.45, -0.89, -0.95, -1.26, -1.26, -1.24, -1.2, -1.4, -1.16, -0.59, -0.59, -0.59, -0.59, -1.13, -1.13, -1.13, -0.59, -0.59, -0.0, -0.0, 1.4, 1.32, 1.32, 1.52, 3.22, 3.22, 3.22, 3.47, 4.4, 3.58, 0.0, 1.79, -0.0, 1.4, 2.53, 3.72, 4.34, 4.92, 5.81, 6.26, 3.82, -5.81, -6.45, -5.94, -5.26, -3.58, -3.13, -2.84, -1.4, -0.0, -0.0, 0.81, 1.7, 3.0, 3.0, 0.89, 0.96, 1.19, 1.13, -0.0, -3.39, -2.4, -1.58, 1.34, 1.79, 1.79, 1.79, 5.6, 5.6, 5.8, 6.25, 6.25, 6.46, 6.9, 6.9, 7.13, 7.55, 7.55, 8.22, 8.22, 8.23, 7.59, 7.6, 6.96, 7.33, 7.61, 7.33, 7.32, 7.59, 6.92, 5.65, 4.45, 4.12, 3.84, 3.2, 2.53, 1.26, 0.89, 0.0, 0.45, -0.89, -0.63, -0.6, -0.57, -0.71, -0.65, -0.61, -0.59, -0.0, -0.0, -0.0, -0.53, -1.2, -1.2, -1.0, -0.61, -0.59, -0.0, -0.0, -0.0, 1.4, 2.66, 3.0, 1.84, 1.7, 3.22, 4.74, 4.11, 3.16, -0.0, -0.0, -0.0, 2.23, 3.16, 4.4, 4.92, 5.36, 6.17, 6.26, 2.24, -4.82, -6.36, -6.36, -5.29, -4.02, -3.82, -3.35, -2.0, -0.88, -0.0, 0.81, 1.7, 1.98, 1.84, 3.0, 2.99, 2.53, 1.99, -2.97, -2.98, -1.9, 0.0, 2.24, 1.34, 1.34, 5.83, 5.83, 5.83, 6.5, 6.5, 6.25, 6.9, 6.9, 6.9, 7.31, 7.83, 8.22, 7.96, 8.23, 7.59, 7.33, 7.22, 6.96, 6.96, 6.97, 6.98, 6.98, 6.97, 6.32, 5.08, 4.45, 3.84, 3.49, 2.86, 2.21, 1.26, 1.26, 0.63, 0.45, 0.0, -0.0, -0.0, -0.0, -0.0, -0.0, -0.0, -0.0, 0.57, 0.61, -0.0, -0.71, -1.24, -1.2, -1.16, -0.59, -0.59, -0.0, -0.0, 0.55, 1.84, 2.8, 2.8, 1.84, 3.22, 4.11, 6.0, 4.29, 3.79, 0.98, -0.0, 2.48, 3.48, 5.26, 5.36, 5.36, 5.73, 6.26, 5.26, 2.53, -2.21, -4.92, -6.26, -5.36, -4.92, -4.8, -4.11, -2.76, -0.88, -0.0, -0.0, 0.88, 3.0, 3.97, 3.0, 1.98, 1.72, 0.82, -3.58, -3.82, -1.58, 1.79, 1.34, 1.34, 5.83, 5.83, 5.83, 6.27, 6.5, 6.5, 7.16, 7.16, 6.9, 7.57, 7.57, 7.57, 7.96, 7.85, 7.59, 7.59, 7.33, 7.22, 6.96, 6.97, 6.98, 6.98, 6.69, 6.95, 5.71, 4.78, 4.12, 4.12, 3.83, 3.48, 2.53, 1.9, 1.26, 0.63, 0.89, 0.89, 0.95, 0.8, 0.71, -0.0, -0.0, 0.59, 1.11, 1.27, 1.16, -0.0, -1.34, -1.9, -1.16, -0.59, -0.0, -0.0, -0.0, 0.57, 1.23, 1.98, 3.0, 1.52, 2.99, 4.11, 4.98, 4.6, 3.79, 1.99, 1.83, 2.98, 5.26, 5.36, 5.81, 6.26, 6.26, 6.26, 6.26, 5.4, 1.99, -0.0, -3.48, -5.81, -6.26, -5.73, -5.6, -2.86, -1.16, -0.0, -0.0, 0.88, 2.4, 2.8, 1.84, 0.95, 1.01, 1.84, -1.08, -3.13, -2.4, -1.26, 0.0, 0.0, 5.83, 5.83, 5.83, 6.27, 6.5, 6.92, 6.92, 7.16, 7.16, 7.57, 7.57, 7.57, 7.96, 7.85, 7.59, 7.59, 7.33, 6.96, 6.96, 6.97, 6.98, 6.7, 6.98, 6.97, 6.34, 6.01, 5.38, 4.75, 4.12, 3.49, 3.16, 2.53, 1.9, 1.26, 1.34, 1.34, 1.2, 1.26, 1.24, 0.65, 0.61, 0.59, 0.57, 1.84, 1.84, 1.24, -0.63, -1.61, -0.63, -0.0, -0.0, 0.59, 0.59, 0.59, 0.59, 1.27, 1.52, 3.0, 3.91, 4.43, 4.54, 4.29, 3.22, 2.16, 2.99, 4.29, 5.51, 5.81, 5.94, 5.94, 6.2, 6.2, 5.81, 4.34, 1.19, -0.0, -1.03, -2.95, -5.36, -5.81, -5.73, -2.84, -1.61, -0.0, -0.0, -0.0, 0.88, 1.05, -0.0, 0.89, 0.89, 1.98, 2.47, -0.0, -2.24, -1.58, 0.0, 0.0, 5.83, 5.83, 6.27, 6.27, 6.27, 6.92, 6.92, 6.92, 6.92, 7.57, 7.57, 7.57, 8.23, 7.59, 7.59, 7.59, 7.6, 6.96, 6.97, 6.33, 6.61, 6.34, 6.98, 6.69, 6.35, 6.34, 5.71, 5.08, 4.74, 4.37, 3.73, 3.72, 3.07, 2.4, 2.12, 1.79, 1.7, 1.86, 1.58, 1.2, 1.16, 1.33, 1.13, 1.11, 1.76, 3.22, 1.27, -0.0, 0.55, 1.23, 1.8, 1.6, 1.13, 1.13, 1.33, 1.33, 1.84, 2.23, 3.91, 3.91, 3.91, 4.11, 2.76, 2.76, 4.29, 4.29, 5.2, 6.71, 4.98, 4.43, 4.89, 4.98, 4.92, 2.68, -2.53, -2.76, -0.89, -0.0, -2.2, -5.26, -5.36, -2.4, -2.15, -1.24, -0.0, -0.0, -0.0, 0.87, 0.98, 0.79, 0.88, 1.99, 2.98, 1.05, -0.0, -1.79, 0.0, 0.0, 5.86, 5.86, 6.29, 6.53, 6.53, 6.94, 7.19, 7.19, 7.59, 7.32, 7.32, 7.85, 7.96, 7.96, 7.59, 7.6, 6.96, 6.97, 6.33, 6.61, 6.34, 6.98, 6.98, 6.69, 6.67, 6.34, 6.32, 5.69, 5.35, 5.01, 4.37, 4.37, 3.72, 3.39, 3.07, 2.68, 2.68, 2.4, 2.15, 1.88, 1.88, 1.84, 1.84, 1.84, 1.84, 3.22, 2.99, 2.2, 2.44, 2.48, 2.51, 2.23, 2.23, 1.84, 1.84, 1.84, 1.88, 2.53, 2.51, 3.63, 4.43, 3.91, 3.63, 4.29, 3.93, 4.4, 4.98, 6.51, 5.36, 3.47, 3.48, 4.34, 4.92, 2.24, -4.34, -5.37, -2.99, -0.0, -0.96, -3.48, -4.38, -4.02, -1.79, -2.12, -1.26, -0.0, 0.6, 1.98, 1.9, 1.2, 0.99, 1.8, 2.53, 3.35, 0.98, -0.0, 1.34, 1.34, 5.86, 5.86, 6.29, 6.53, 6.94, 6.94, 6.94, 7.59, 7.59, 7.59, 7.59, 7.59, 7.59, 8.24, 7.6, 7.33, 6.97, 6.71, 6.61, 6.63, 6.98, 6.98, 6.98, 6.97, 6.97, 6.95, 6.64, 6.01, 6.73, 4.74, 4.43, 4.65, 4.0, 4.11, 3.39, 3.13, 3.13, 3.07, 2.91, 2.5, 2.53, 2.53, 2.53, 2.53, 2.21, 2.53, 2.84, 3.43, 3.16, 2.84, 3.14, 2.53, 2.53, 2.53, 2.53, 2.53, 2.53, 2.53, 2.53, 2.79, 4.54, 4.89, 4.29, 3.93, 4.57, 4.82, 4.82, 6.51, 6.26, 5.36, 4.02, 4.4, 6.94, 4.92, -4.02, -5.94, -4.29, -2.0, -1.83, -2.3, -3.6, -3.58, -3.47, -1.79, -1.79, -0.63, 0.63, 1.7, 3.82, 1.26, -0.0, -0.0, 2.0, 2.53, 2.53, -0.0, 1.34, 1.34, 6.29, 6.29, 6.29, 6.29, 6.94, 6.94, 6.94, 7.33, 7.33, 7.59, 7.59, 7.59, 8.24, 7.96, 7.61, 7.61, 7.26, 6.98, 6.98, 6.98, 6.69, 6.69, 6.97, 6.97, 6.97, 6.95, 6.92, 6.32, 6.23, 6.45, 3.83, 4.11, 4.37, 3.88, 3.87, 3.53, 3.58, 3.53, 3.39, 3.07, 3.07, 2.79, 2.79, 2.79, 2.79, 3.07, 3.07, 3.6, 3.6, 2.79, 2.79, 2.79, 2.79, 2.79, 3.07, 3.07, 3.07, 2.79, 3.07, 3.07, 3.72, 4.98, 5.6, 4.4, 4.82, 4.77, 4.82, 5.26, 6.94, 6.94, 5.21, 5.58, 6.2, 5.36, 2.24, -5.73, -4.82, -3.82, -3.35, -2.84, -2.98, -3.13, -2.97, -2.98, -1.27, -0.45, 0.45, 1.79, 4.47, 1.9, -0.0, -0.0, -0.0, 2.0, 2.53, 2.48, -0.0, -0.0, 6.29, 6.29, 6.29, 6.29, 6.96, 7.22, 7.6, 7.6, 7.6, 7.6, 7.6, 7.6, 7.96, 7.96, 7.61, 7.61, 7.6, 6.98, 6.98, 6.98, 7.28, 7.27, 7.27, 7.27, 7.27, 7.55, 7.25, 6.92, 6.87, 6.41, 5.21, 4.29, 4.0, 3.88, 4.11, 3.98, 4.02, 3.58, 3.98, 3.82, 3.6, 3.6, 3.35, 3.35, 3.6, 3.6, 3.6, 3.6, 3.6, 3.2, 3.07, 3.07, 3.07, 3.07, 3.07, 3.2, 3.2, 3.2, 3.2, 3.2, 6.0, 6.0, 5.6, 5.51, 4.34, 4.34, 4.34, 4.82, 6.07, 6.51, 5.6, 6.8, 7.15, 6.26, 4.02, -2.8, -4.47, -4.47, -4.02, -3.47, -2.21, -2.4, -2.24, -2.4, -2.97, -0.6, 0.0, 1.49, 4.02, 2.8, -0.0, -1.4, -0.0, 0.99, 1.8, 2.53, 1.98, 1.98, 6.31, 6.31, 6.56, 6.56, 6.96, 6.96, 7.6, 7.6, 7.6, 7.6, 7.6, 7.6, 8.24, 7.95, 8.24, 7.6, 7.6, 7.3, 6.98, 7.59, 7.59, 7.59, 7.27, 7.27, 7.55, 7.55, 7.51, 7.51, 7.44, 7.23, 6.8, 6.0, 5.31, 4.4, 4.34, 4.44, 4.47, 4.47, 4.43, 4.3, 4.3, 4.11, 4.11, 4.11, 4.11, 4.3, 3.87, 3.87, 3.82, 3.82, 3.39, 3.39, 3.39, 3.39, 3.39, 3.39, 3.39, 3.39, 3.39, 3.82, 3.6, 6.4, 6.0, 6.07, 5.51, 5.09, 4.34, 4.82, 5.26, 5.26, 5.09, 6.94, 7.15, 6.71, 6.71, 4.77, 1.79, -3.82, -4.92, -4.92, -3.39, -2.0, -2.24, -2.24, -2.54, -0.6, 0.42, 3.35, 4.02, 3.13, -0.0, -1.9, -1.4, -0.0, 0.99, 1.8, 2.68, 2.68, 6.31, 6.31, 6.31, 6.96, 6.96, 6.96, 7.33, 7.33, 7.33, 7.61, 7.61, 7.61, 7.95, 7.93, 7.93, 7.61, 7.6, 7.3, 7.59, 7.59, 7.59, 7.59, 7.88, 7.81, 7.81, 7.81, 8.08, 8.0, 7.44, 7.35, 7.48, 7.51, 6.79, 6.04, 5.7, 5.33, 5.36, 4.92, 4.89, 4.88, 4.77, 4.6, 4.6, 4.77, 4.77, 4.44, 3.98, 3.98, 3.87, 3.82, 3.39, 3.39, 3.39, 3.39, 3.39, 3.39, 3.82, 3.82, 3.39, 3.82, 3.87, 4.3, 7.01, 5.73, 5.26, 5.09, 4.34, 4.82, 5.36, 4.82, 6.26, 5.73, 7.45, 7.15, 7.15, 6.71, 4.92, 1.79, -4.77, -4.66, -3.47, -2.4, -2.0, -1.58, -1.79, 0.0, 2.4, 3.58, 3.58, 2.8, 1.9, -0.0, -1.9, -1.2, -0.0, 0.99, 2.68, 2.68, 6.31, 6.31, 6.31, 6.96, 6.96, 6.96, 7.33, 7.61, 7.61, 7.61, 7.61, 7.61, 7.93, 7.93, 7.61, 7.91, 7.6, 7.9, 7.59, 7.59, 7.86, 7.86, 8.15, 8.15, 7.81, 8.08, 8.08, 8.0, 8.0, 7.9, 7.76, 7.81, 7.51, 7.4, 7.06, 6.23, 6.26, 5.81, 5.81, 5.34, 5.24, 5.24, 5.09, 6.45, 4.77, 4.34, 4.43, 3.98, 3.98, 3.53, 3.53, 3.53, 3.53, 3.53, 3.53, 3.53, 3.97, 3.98, 3.98, 3.98, 3.98, 3.98, 7.15, 5.73, 5.26, 5.09, 4.34, 4.92, 4.92, 4.92, 4.92, 5.36, 7.15, 8.05, 6.64, 5.51, 4.82, 2.24, -3.16, -4.22, -3.47, -2.97, -2.4, -1.2, -0.0, 1.58, 2.4, 3.39, 3.82, 3.39, 2.8, -0.0, -1.9, -2.21, -0.0, -0.0, 0.99, 1.8, 6.31, 6.31, 6.31, 6.7, 6.96, 6.96, 7.61, 7.61, 7.61, 7.61, 7.61, 7.93, 7.93, 7.93, 7.93, 7.6, 7.6, 8.19, 8.19, 7.86, 7.86, 8.15, 8.15, 8.15, 8.08, 8.08, 8.37, 8.0, 8.27, 7.9, 7.76, 8.0, 8.0, 7.69, 7.4, 7.07, 6.68, 6.26, 6.26, 5.81, 5.78, 5.33, 5.24, 6.94, 5.51, 5.24, 4.44, 3.98, 3.98, 3.53, 3.39, 3.39, 3.39, 3.53, 3.53, 3.97, 3.98, 3.98, 4.02, 4.02, 4.02, 4.02, 7.15, 5.81, 5.36, 5.36, 5.36, 4.47, 4.92, 4.47, 4.47, 6.26, 6.71, 6.26, 5.26, 2.48, 1.6, -2.68, -3.6, -3.58, -2.98, -2.98, -2.21, -1.2, -0.0, 1.2, 2.4, 3.58, 4.02, 3.39, 3.2, 2.21, -0.0, -2.21, -1.9, -0.0, 1.0, 0.99, 6.31, 6.31, 6.31, 6.7, 6.7, 7.24, 7.24, 7.61, 7.61, 7.61, 7.61, 7.93, 7.93, 7.93, 8.22, 7.9, 7.9, 7.9, 8.19, 8.19, 8.49, 8.73, 8.38, 8.38, 8.65, 8.29, 8.55, 8.0, 8.27, 8.15, 8.15, 8.0, 7.81, 7.58, 7.69, 7.4, 7.07, 6.68, 6.71, 6.26, 5.81, 5.78, 5.33, 5.24, 7.37, 5.57, 4.8, 4.3, 3.87, 3.87, 3.87, 3.87, 3.87, 3.98, 3.98, 3.98, 3.98, 4.02, 4.02, 4.02, 4.02, 4.47, 4.47, 7.15, 6.26, 5.36, 4.47, 4.47, 4.34, 4.47, 4.92, 4.92, 6.71, 6.71, 4.92, -1.27, -2.48, -3.58, -4.47, -3.47, -3.39, -2.6, -2.21, -1.0, -0.0, 2.4, 3.13, 4.02, 4.02, 3.58, 3.58, 2.8, -0.0, -2.68, -1.58, -0.0, -0.0, 1.0, 6.31, 6.31, 6.31, 6.31, 6.97, 6.97, 6.97, 7.33, 7.33, 7.61, 7.61, 7.93, 7.93, 8.22, 8.22, 7.9, 7.9, 7.9, 8.19, 8.19, 8.73, 8.73, 8.73, 8.65, 8.65, 8.65, 8.55, 8.55, 8.43, 8.68, 8.15, 8.0, 8.22, 8.0, 7.74, 7.4, 7.51, 7.06, 6.68, 6.71, 6.26, 6.26, 5.81, 5.34, 5.78, 7.85, 5.57, 5.09, 5.02, 4.6, 4.6, 4.77, 4.77, 4.44, 4.44, 4.44, 4.47, 4.02, 4.02, 4.02, 4.02, 4.02, 6.71, 6.71, 6.26, 5.36, 4.02, 4.92, 4.34, 4.92, 4.92, 5.26, 6.51, 6.71, 4.8, -4.02, -4.4, -4.4, -4.34, -3.82, -2.68, -2.21, -1.4, -0.0, 1.26, 2.68, 3.58, 4.02, 4.02, 3.58, 3.58, 3.13, 2.24, -2.24, -2.24, 1.79, 2.24, 2.24, 6.31, 6.31, 6.31, 6.58, 6.97, 6.97, 6.97, 7.33, 7.61, 7.61, 7.61, 7.93, 7.93, 8.22, 7.9, 7.9, 7.9, 8.19, 8.19, 8.45, 8.45, 8.73, 8.73, 9.01, 8.65, 8.65, 8.55, 8.55, 8.43, 8.68, 8.28, 8.51, 8.22, 8.0, 8.17, 7.69, 7.4, 7.07, 7.13, 6.68, 6.71, 6.26, 6.26, 5.81, 5.81, 6.23, 6.16, 5.99, 5.57, 5.7, 5.7, 5.24, 5.33, 4.89, 4.88, 4.92, 4.47, 4.47, 4.47, 4.47, 4.02, 4.47, 4.47, 7.15, 6.71, 5.81, 4.92, 4.47, 4.47, 4.92, 5.26, 5.51, 6.94, 5.81, 6.71, 4.4, -0.0, -3.13, -3.82, -3.2, -1.58, -0.0, -0.0, -0.0, -0.0, 1.4, 3.35, 3.35, 3.82, 3.82, 3.39, 3.58, 2.68, 2.24, 2.24, 1.79, 1.79, 1.79, 6.33, 6.33, 6.58, 6.58, 6.58, 6.97, 6.97, 6.97, 7.61, 7.61, 7.61, 7.93, 8.22, 8.22, 7.9, 7.9, 7.9, 8.19, 8.19, 8.45, 8.73, 8.73, 8.73, 9.01, 8.65, 9.1, 8.93, 8.55, 8.82, 8.68, 8.68, 8.51, 8.3, 8.42, 8.0, 7.74, 7.84, 7.51, 7.07, 7.13, 6.71, 6.71, 6.71, 6.26, 6.26, 6.26, 6.23, 6.23, 6.23, 6.23, 5.78, 5.78, 5.34, 5.36, 5.36, 4.92, 4.92, 4.92, 4.47, 4.44, 4.44, 4.44, 4.88, 7.15, 6.71, 6.07, 5.09, 4.47, 4.02, 4.92, 5.29, 5.51, 5.94, 6.2, 6.26, 5.94, 5.58, 4.98, 4.4, 3.16, 2.2, 1.66, -0.0, -0.99, -1.4, -0.0, 1.27, 3.16, 3.72, 3.35, 2.53, 3.2, 2.8, -2.24, -2.24, 1.79, 1.79, 1.79, 6.33, 6.33, 6.33, 6.33, 6.33, 6.97, 6.71, 6.98, 6.98, 7.61, 7.61, 7.61, 8.22, 8.22, 7.9, 7.9, 7.9, 8.19, 8.19, 8.45, 8.73, 8.73, 8.73, 9.01, 9.21, 8.84, 9.1, 8.96, 8.82, 8.68, 8.68, 8.51, 8.72, 8.3, 8.42, 8.17, 7.87, 7.51, 7.51, 7.13, 7.13, 7.15, 6.71, 6.71, 6.26, 6.26, 6.26, 6.26, 6.26, 5.81, 5.81, 5.81, 5.36, 5.36, 5.36, 5.36, 4.92, 4.92, 4.89, 4.88, 4.44, 4.44, 4.88, 4.92, 7.15, 6.51, 5.64, 4.47, 4.47, 4.82, 6.51, 5.51, 5.94, 6.64, 6.71, 6.45, 6.57, 7.2, 7.76, 7.2, 6.11, 3.35, -1.13, -3.22, -2.84, -0.99, -0.0, 2.23, 2.23, 2.53, 2.84, 2.4, 2.24, 1.79, 2.24, 1.79, 1.79, 1.79, 6.33, 6.33, 6.33, 6.33, 6.33, 6.33, 6.71, 6.98, 6.98, 7.32, 7.32, 7.61, 8.22, 8.22, 7.9, 7.9, 7.9, 8.19, 8.19, 8.45, 8.73, 8.73, 8.73, 9.01, 9.01, 8.84, 9.1, 9.35, 8.82, 9.07, 8.68, 8.91, 8.72, 8.72, 8.48, 8.17, 7.87, 7.87, 7.51, 7.51, 7.13, 7.13, 6.71, 6.71, 6.71, 6.26, 6.26, 6.26, 5.81, 5.81, 5.81, 5.81, 5.81, 5.36, 5.36, 5.36, 5.33, 5.33, 4.89, 4.89, 4.77, 4.77, 4.77, 4.88, 4.92, 7.15, 6.26, 4.92, 5.36, 5.4, 5.51, 5.51, 5.73, 6.26, 6.71, 6.64, 6.94, 7.37, 7.63, 7.6, 7.2, 3.79, -3.72, -5.09, -3.58, -1.98, -0.0, -0.0, 1.13, -0.0, 3.58, 2.68, 2.24, 1.79, 2.24, 2.24, 2.24, 2.24, 6.33, 6.33, 6.33, 6.33, 6.61, 6.61, 6.61, 6.98, 6.98, 6.98, 7.32, 7.32, 7.6, 7.9, 7.9, 7.9, 7.9, 7.9, 8.19, 8.19, 8.73, 8.73, 8.73, 9.01, 8.65, 8.65, 8.93, 8.55, 8.82, 9.07, 8.68, 8.91, 8.72, 8.72, 8.48, 8.17, 7.74, 7.87, 7.51, 7.51, 7.13, 7.13, 6.68, 6.71, 6.71, 6.26, 6.26, 6.26, 6.26, 6.26, 5.81, 5.81, 5.81, 5.36, 5.33, 5.33, 5.33, 5.33, 5.33, 5.24, 4.8, 4.77, 4.77, 4.34, 4.44, 7.15, 6.26, 5.81, 5.81, 5.36, 5.73, 5.73, 5.81, 6.26, 6.71, 6.71, 7.15, 7.54, 7.37, 7.12, 6.8, 2.53, -4.92, -5.75, -4.22, -2.68, -0.98, -0.0, -0.0, -0.0, 2.24, 2.24, 1.79, 2.24, -2.24, -2.24, -2.24, -2.24, 6.33, 6.33, 6.61, 6.34, 6.34, 6.34, 6.34, 6.98, 6.98, 6.98, 7.32, 7.6, 7.6, 7.9, 7.9, 7.9, 7.9, 7.9, 8.19, 8.19, 8.45, 8.73, 8.73, 8.65, 8.65, 8.93, 8.93, 8.55, 8.82, 8.68, 8.68, 8.91, 8.51, 8.3, 8.42, 8.0, 7.74, 7.84, 7.4, 7.51, 7.07, 7.13, 6.68, 6.68, 6.68, 6.23, 6.26, 6.26, 6.26, 6.26, 6.26, 5.81, 5.81, 5.78, 5.34, 5.33, 5.33, 5.24, 5.24, 5.24, 5.24, 5.09, 4.6, 4.11, 4.3, 6.58, 6.26, 5.81, 5.81, 5.36, 5.36, 5.81, 5.81, 6.26, 6.26, 6.71, 6.71, 7.15, 6.94, 7.12, 6.57, 3.13, -5.4, -6.71, -5.82, -4.11, -1.66, -0.0, -0.0, 1.34, 1.79, 2.24, 2.24, -2.24, -2.24, -2.24, -2.24, -2.24, 6.34, 6.34, 6.34, 6.34, 6.34, 6.34, 6.34, 6.7, 6.98, 6.98, 6.98, 7.6, 7.6, 7.6, 7.9, 7.9, 7.9, 7.9, 8.19, 8.19, 8.19, 8.73, 8.38, 8.65, 8.65, 8.93, 8.55, 8.55, 8.82, 8.43, 8.68, 8.51, 8.51, 8.22, 7.81, 8.0, 7.69, 7.26, 7.4, 6.97, 7.06, 7.06, 7.06, 6.68, 6.68, 6.68, 6.23, 6.23, 6.23, 6.23, 6.23, 6.23, 5.78, 5.78, 5.34, 5.33, 5.24, 5.24, 5.24, 5.24, 5.09, 5.09, 5.02, 4.11, 4.11, 5.94, 5.73, 5.36, 4.92, 5.26, 5.26, 5.7, 5.81, 5.73, 5.73, 6.26, 6.26, 6.26, 6.45, 6.88, 6.45, 4.47, -1.6, -6.64, -6.44, -4.01, -0.0, -0.0, -1.79, -2.24, -1.79, -2.68, -2.68, -2.24, -2.24, -2.68, -2.68, -2.68, 6.34, 6.34, 6.34, 6.34, 6.34, 6.34, 6.34, 6.7, 6.7, 6.7, 6.98, 7.27, 7.6, 7.6, 7.6, 7.9, 7.9, 8.19, 8.19, 8.19, 8.19, 8.15, 8.38, 8.65, 8.65, 8.93, 8.55, 8.55, 8.43, 8.43, 8.28, 8.4, 8.0, 8.22, 7.81, 8.0, 7.69, 7.26, 7.4, 7.4, 6.97, 7.06, 7.06, 6.61, 6.61, 6.68, 6.23, 6.23, 6.23, 6.23, 6.23, 6.23, 6.23, 5.78, 5.7, 5.7, 5.24, 5.24, 5.24, 5.24, 5.09, 5.09, 5.09, 4.4, 4.27, 5.94, 5.73, 5.29, 5.26, 5.4, 4.98, 4.98, 4.98, 5.73, 5.81, 6.26, 6.26, 6.17, 6.2, 6.45, 6.45, 5.81, 3.13, -3.22, -6.11, -2.3, -0.87, -0.0, -0.0, -2.68, -3.13, -2.24, -1.79, 2.24, -2.68, -2.68, -2.68, -2.68, 6.34, 6.34, 6.34, 6.34, 6.34, 6.34, 6.7, 6.7, 6.7, 6.98, 6.98, 6.98, 7.3, 7.6, 7.6, 7.9, 8.19, 8.19, 8.19, 8.19, 8.19, 8.15, 8.15, 8.44, 8.29, 8.55, 8.55, 8.43, 8.43, 8.68, 8.15, 8.4, 8.0, 8.22, 7.81, 7.51, 7.69, 7.26, 7.26, 7.4, 7.4, 6.94, 6.94, 7.06, 6.61, 6.61, 6.6, 6.16, 6.23, 6.23, 6.23, 6.16, 6.16, 5.7, 5.7, 5.7, 5.67, 5.24, 5.09, 5.09, 5.09, 5.09, 5.09, 4.8, 3.88, 4.3, 6.17, 5.73, 5.51, 4.98, 4.29, 3.79, 4.11, 4.29, 5.73, 5.81, 6.26, 6.26, 6.26, 6.2, 6.2, 6.17, 2.23, -2.99, -4.11, -2.68, -1.8, -0.0, -0.0, -2.24, -3.13, -2.4, -1.9, -1.9, -2.68, -3.13, -3.13, -3.13, 6.35, 6.35, 6.63, 6.63, 6.98, 6.98, 6.98, 6.98, 6.98, 6.98, 6.98, 6.98, 6.98, 7.3, 7.3, 7.59, 8.19, 8.19, 8.19, 7.86, 8.15, 8.15, 8.08, 8.08, 8.08, 8.37, 8.0, 8.27, 8.27, 8.15, 8.15, 8.0, 8.0, 7.81, 7.81, 7.51, 7.69, 7.69, 7.26, 7.26, 7.4, 6.97, 6.94, 6.94, 6.61, 6.61, 6.6, 6.6, 6.16, 6.16, 6.16, 6.16, 6.16, 5.7, 5.7, 5.7, 5.57, 5.51, 5.09, 5.09, 5.09, 5.09, 5.31, 4.8, 3.88, 3.7, 6.02, 6.2, 6.64, 6.17, 5.51, 4.29, 2.95, 2.95, 4.98, 5.73, 5.81, 5.81, 6.26, 6.26, 6.26, 5.94, -0.0, -5.58, -4.19, -3.48, -2.68, -1.98, -0.99, -2.4, -3.13, -2.97, -3.2, -2.8, -3.13, -3.13, -3.13, -3.13, 6.35, 6.35, 6.35, 6.63, 6.98, 6.98, 6.98, 6.98, 6.98, 6.98, 6.98, 6.98, 6.98, 6.98, 7.59, 7.59, 7.59, 7.86, 8.15, 8.15, 8.15, 8.15, 8.08, 8.08, 8.37, 8.0, 8.27, 8.27, 7.9, 8.15, 8.15, 8.0, 8.0, 7.81, 7.51, 7.51, 7.51, 7.69, 7.69, 7.26, 7.26, 7.4, 6.94, 6.94, 6.94, 6.61, 6.61, 6.6, 6.6, 6.6, 6.6, 6.16, 6.14, 5.7, 5.57, 5.57, 5.57, 5.51, 5.09, 5.09, 5.09, 5.51, 5.31, 4.9, 4.27, 3.88, 3.87, 4.47, 7.6, 7.15, 6.64, 5.73, 4.77, 3.35, 3.35, 4.57, 5.29, 5.81, 5.81, 5.81, 5.73, 5.6, -5.4, -6.94, -5.51, -4.6, -3.93, -3.58, -2.53, -2.6, -3.13, -3.13, -3.2, -3.2, -3.58, -3.58, -3.58, -3.58, 6.35, 6.35, 6.35, 6.35, 6.69, 6.69, 6.69, 6.69, 6.69, 6.69, 6.69, 6.97, 6.97, 6.97, 7.27, 7.59, 7.59, 7.88, 8.15, 7.81, 7.81, 8.08, 8.08, 8.0, 8.0, 8.0, 8.27, 7.9, 8.15, 8.15, 8.0, 8.0, 7.81, 7.71, 7.31, 7.51, 7.51, 7.51, 7.69, 7.26, 7.26, 7.26, 6.94, 6.94, 6.94, 6.51, 6.51, 6.47, 6.47, 6.6, 6.6, 6.47, 5.99, 5.99, 5.57, 5.57, 5.57, 5.51, 5.51, 5.09, 4.9, 5.31, 5.31, 5.31, 4.17, 3.72, 3.7, 4.47, 7.15, 7.6, 7.15, 6.71, 5.81, 4.92, 3.9, 4.4, 4.98, 5.73, 5.36, 5.26, 4.98, 4.43, -2.48, -6.88, -6.94, -5.6, -4.98, -4.6, -4.0, -3.47, -3.58, -3.13, -3.58, -3.39, -3.58, -3.13, -3.13, -3.13, 6.35, 6.35, 6.35, 6.35, 6.35, 6.69, 6.69, 6.69, 6.69, 6.97, 6.97, 6.97, 6.97, 6.97, 6.97, 7.27, 7.55, 7.55, 7.55, 7.55, 8.08, 8.08, 7.73, 8.0, 8.0, 7.9, 7.9, 8.15, 8.15, 7.76, 8.0, 8.0, 7.81, 7.71, 7.71, 7.51, 7.51, 7.51, 7.51, 7.26, 7.26, 7.21, 6.79, 6.94, 6.94, 6.51, 6.51, 6.47, 6.47, 6.47, 6.47, 6.47, 6.04, 5.99, 5.57, 5.57, 5.57, 5.51, 5.31, 5.31, 4.9, 4.9, 5.31, 5.31, 4.55, 3.43, 3.35, 3.87, 4.89, 7.54, 7.1, 6.71, 6.26, 5.36, 4.92, 4.98, 5.4, 5.73, 5.81, 4.98, 4.11, 4.19, 1.99, -4.11, -7.12, -6.88, -5.34, -5.51, -4.66, -3.9, -3.58, -3.13, -3.13, -3.39, -3.58, -3.58, -3.58, -3.58, 6.08, 6.08, 6.35, 6.35, 6.35, 6.35, 6.97, 6.97, 6.97, 6.97, 6.97, 6.97, 6.97, 6.97, 7.27, 7.55, 7.55, 7.23, 7.23, 7.51, 7.51, 7.51, 8.0, 8.0, 7.9, 7.9, 8.15, 8.15, 7.76, 8.0, 8.0, 7.6, 7.81, 7.71, 7.71, 7.71, 7.51, 7.51, 7.51, 7.09, 7.26, 7.21, 6.79, 6.79, 6.94, 6.94, 6.47, 6.47, 6.47, 6.47, 6.47, 6.47, 6.04, 5.99, 5.99, 5.57, 5.4, 5.4, 5.31, 5.31, 4.9, 5.31, 5.31, 5.08, 4.55, 3.78, 3.35, 3.6, 4.77, 6.94, 6.94, 6.64, 5.73, 5.36, 5.26, 4.98, 4.6, 5.51, 5.81, 5.26, 4.11, 4.43, 2.8, -1.03, -6.21, -6.94, -6.07, -6.02, -5.31, -4.47, -3.58, -2.97, -2.97, -3.39, -3.58, -3.13, -3.13, -3.13, 5.72, 5.72, 6.08, 6.08, 6.64, 6.64, 6.97, 6.97, 6.97, 6.97, 6.97, 6.97, 7.27, 7.27, 6.95, 6.95, 7.23, 7.51, 7.51, 7.51, 7.51, 7.8, 7.8, 7.9, 7.9, 7.9, 8.15, 8.15, 7.76, 8.0, 8.0, 8.0, 7.81, 7.81, 7.71, 7.71, 7.51, 7.51, 7.51, 7.51, 7.09, 7.21, 7.21, 6.79, 6.79, 6.79, 6.47, 6.47, 6.47, 6.47, 6.47, 6.47, 6.04, 5.81, 5.81, 5.81, 5.4, 5.4, 5.31, 5.31, 5.31, 5.31, 5.31, 5.08, 4.55, 3.73, 3.16, 3.35, 4.6, 6.94, 6.94, 6.64, 6.17, 5.73, 4.98, 4.98, 4.29, 4.98, 5.29, 4.98, 4.98, 5.37, 3.91, -0.96, -5.95, -6.94, -7.08, -6.21, -5.75, -4.92, -3.58, -2.97, -2.97, -3.39, -3.58, -3.13, -3.13, -3.13, 5.72, 5.72, 6.0, 6.35, 6.35, 6.35, 6.35, 6.67, 6.67, 6.95, 6.95, 6.95, 6.95, 6.95, 6.95, 6.95, 7.25, 7.51, 7.51, 7.17, 7.44, 7.44, 7.44, 7.72, 7.72, 8.15, 7.76, 7.76, 8.0, 8.0, 8.0, 8.0, 7.81, 7.81, 7.81, 7.81, 7.93, 7.51, 7.51, 7.51, 7.09, 7.21, 7.21, 6.79, 6.79, 6.79, 6.3, 6.3, 6.3, 6.3, 6.3, 6.3, 6.3, 5.81, 5.81, 5.81, 5.81, 5.81, 5.31, 5.31, 5.31, 5.08, 5.08, 5.08, 4.93, 3.73, 3.16, 3.35, 4.4, 5.57, 6.23, 8.05, 7.15, 6.26, 6.26, 5.73, 5.26, 5.26, 4.92, 5.26, 5.4, 5.51, 4.11, -0.0, -5.58, -7.1, -7.15, -6.71, -6.26, -5.36, -4.47, -3.58, -3.13, -3.58, -3.13, -3.13, -3.13, -3.13, 5.72, 5.72, 6.0, 6.0, 6.35, 6.35, 6.35, 6.65, 6.95, 6.95, 6.95, 6.95, 6.95, 6.95, 7.25, 7.25, 6.92, 6.92, 7.17, 7.44, 7.44, 7.44, 7.72, 7.72, 7.35, 7.61, 7.61, 7.76, 8.0, 8.0, 8.0, 8.0, 7.81, 7.81, 7.81, 7.81, 7.93, 7.51, 7.51, 7.51, 7.09, 7.26, 7.21, 6.79, 6.79, 6.79, 6.79, 6.3, 6.3, 6.3, 6.3, 6.3, 6.3, 5.88, 5.81, 5.81, 5.81, 5.81, 5.31, 5.31, 5.08, 5.08, 5.08, 5.08, 5.08, 4.07, 3.43, 3.43, 4.27, 5.09, 5.7, 8.05, 7.15, 8.05, 6.71, 6.71, 6.26, 5.36, 5.36, 5.36, 5.29, 4.98, 4.11, 1.05, -3.22, -7.1, -7.6, -7.6, -6.71, -6.21, -4.85, -3.9, -3.13, -2.68, -2.24, -2.24, -2.24, -2.24, 5.34, 5.34, 5.72, 5.72, 5.72, 6.06, 6.06, 6.65, 6.65, 6.95, 6.95, 6.95, 7.25, 7.25, 6.92, 7.17, 7.17, 7.44, 7.44, 7.44, 7.44, 7.35, 7.35, 7.35, 7.61, 7.61, 7.61, 7.61, 8.0, 8.0, 8.0, 7.6, 7.81, 7.81, 7.81, 7.81, 7.51, 7.51, 7.51, 7.51, 7.26, 7.26, 7.21, 7.21, 6.79, 6.79, 6.79, 6.79, 6.72, 6.72, 6.3, 6.3, 6.3, 6.3, 6.23, 5.81, 5.81, 5.81, 5.6, 5.47, 5.08, 5.08, 5.47, 5.47, 4.84, 4.07, 3.48, 3.43, 3.72, 4.6, 5.09, 5.78, 5.81, 8.49, 7.15, 6.71, 6.26, 5.81, 5.36, 5.36, 5.36, 5.26, 4.29, 2.99, -0.0, -4.29, -7.15, -7.6, -7.15, -6.64, -5.51, -4.57, -2.98, -2.4, -1.58, 2.24, 2.24, 2.24, 5.34, 5.34, 5.72, 5.72, 5.72, 6.06, 6.06, 6.65, 6.65, 6.95, 6.95, 6.95, 7.25, 7.25, 6.92, 7.17, 7.17, 7.44, 7.44, 7.44, 7.44, 7.35, 7.35, 7.35, 7.61, 7.61, 7.61, 7.61, 8.0, 8.0, 8.0, 7.6, 7.81, 7.81, 7.81, 7.81, 7.51, 7.51, 7.51, 7.51, 7.26, 7.26, 7.21, 7.21, 6.79, 6.79, 6.79, 6.79, 6.72, 6.72, 6.3, 6.3, 6.3, 6.3, 6.23, 5.81, 5.81, 5.81, 5.6, 5.47, 5.08, 5.08, 5.47, 5.47, 4.84, 4.07, 3.48, 3.43, 3.72, 4.6, 5.09, 5.78, 5.81, 8.49, 7.15, 6.71, 5.81, 5.81, 5.36, 5.36, 5.36, 5.26, 4.29, 3.49, 2.16, -0.0, -3.79, -6.64, -7.15, -6.64, -5.94, -4.98, -3.16, -2.53, -1.4, 2.24, 2.24, 2.24]}, {"header": {"dx": 0.06612293990616946, "dy": 0.0552356325346848, "nx": 98, "ny": 59, "la1": 35.046912555036876, "la2": 31.78801023549047, "lo1": -121.43107172385933, "lo2": -114.95102361305473, "refTime": "2026041518", "parameterCategory": 1, "parameterNumber": 3}, "data": [-11.75, -10.83, -10.3, -9.48, -8.55, -7.44, -6.28, -5.69, -5.08, -4.47, -3.42, -2.77, -2.67, -1.73, -0.83, -0.89, -3.48, -4.47, -5.09, -5.51, -4.84, -5.21, -3.48, -3.16, -2.23, -2.23, -3.35, -3.72, -4.0, -4.34, -4.34, -4.47, -4.92, -4.82, -4.98, -4.6, -4.6, -3.93, -3.16, -2.48, -1.83, -2.16, -4.56, -5.59, -5.7, -5.64, -5.76, -5.06, -4.34, -2.67, -0.95, 0.0, 1.03, 2.99, 4.43, 4.74, 4.29, 3.55, 2.82, 2.82, 2.64, 3.0, 2.8, 2.6, 1.98, 1.84, 1.96, 1.73, 1.84, 1.75, 1.84, 1.73, 0.95, 0.95, 0.95, 0.89, 0.0, 0.0, 0.0, -0.98, -1.6, -2.8, -2.8, -1.9, -1.58, 0.0, 0.0, 0.0, 2.4, 5.6, 6.94, 7.37, 7.37, 7.12, 7.12, 6.99, 6.57, 6.88, -11.75, -11.22, -10.3, -9.76, -8.93, -8.0, -6.87, -6.28, -5.69, -5.08, -4.1, -4.26, -3.4, -2.51, -2.54, -2.4, -2.99, -5.51, -5.81, -4.82, -5.94, -5.21, -5.21, -4.11, -2.48, -2.23, -2.84, -3.35, -4.34, -4.82, -4.82, -4.92, -5.36, -5.26, -5.4, -4.98, -5.2, -4.98, -4.98, -3.93, -4.11, -4.56, -5.59, -6.64, -6.83, -6.83, -5.36, -4.42, -3.0, -0.96, 0.0, 0.96, 2.8, 3.22, 4.01, 4.29, 3.97, 2.82, 2.82, 2.82, 2.64, 1.72, 1.98, 1.84, 1.98, 1.72, 1.84, 1.73, 1.84, 1.84, 1.65, 0.94, 0.0, 0.0, 0.0, 0.0, 0.0, 0.0, 0.0, -0.98, -1.6, -2.8, -2.8, -1.9, -1.58, 0.0, 0.0, 0.0, 2.4, 5.6, 6.94, 7.37, 7.37, 7.12, 7.12, 6.99, 6.57, 6.88, -11.75, -11.36, -10.83, -9.76, -9.48, -8.55, -7.44, -6.87, -5.95, -5.38, -5.08, -3.85, -3.6, -3.4, -3.2, -2.67, -2.82, -4.11, -5.36, -6.26, -4.82, -5.51, -4.84, -5.21, -3.22, -3.16, -3.35, -3.82, -4.34, -4.92, -5.36, -5.81, -5.81, -6.51, -5.4, -6.4, -5.51, -5.94, -5.94, -5.6, -5.82, -6.39, -7.35, -7.68, -6.83, -5.36, -3.55, -2.16, 0.0, 0.0, 2.2, 2.76, 3.63, 3.91, 3.72, 3.72, 2.64, 2.82, 2.51, 1.73, 1.96, 1.84, 1.98, 1.98, 1.98, 1.84, 1.84, 0.89, 0.94, 0.94, 0.0, 0.0, -0.94, -0.89, -0.89, -0.96, 0.0, 0.0, -0.87, -1.6, -3.2, -2.8, -2.8, -2.68, -2.24, -2.4, -1.6, -0.96, 2.95, 6.45, 7.55, 7.37, 7.37, 6.94, 6.57, 5.58, 5.6, 6.64, -12.28, -11.75, -11.22, -10.3, -9.38, -8.93, -8.0, -7.09, -6.28, -5.69, -5.69, -5.08, -4.5, -3.4, -3.77, -4.42, -4.26, -4.87, -5.6, -5.29, -4.92, -5.36, -5.09, -4.29, -4.11, -5.21, -4.4, -4.34, -4.47, -4.92, -5.36, -6.26, -6.26, -6.71, -6.51, -6.94, -7.01, -7.47, -7.63, -7.76, -8.43, -8.38, -7.35, -6.32, -5.53, -3.77, -1.84, 0.0, 0.88, 1.99, 2.53, 2.76, 2.99, 2.99, 2.8, 3.0, 1.84, 1.73, 1.73, 1.73, 1.96, 1.84, 1.98, 1.98, 1.72, 1.84, 1.73, 1.45, 0.79, 0.0, 0.0, -0.89, -2.51, -3.33, -3.22, -2.99, -0.96, 0.0, 0.0, -2.68, -2.24, -3.13, -3.13, -3.13, -3.58, -3.35, -2.48, 1.13, 6.2, 8.05, 8.0, 7.37, 7.37, 6.57, 5.58, 4.89, 5.4, 6.26, -12.28, -11.75, -11.22, -10.68, -9.76, -9.48, -8.55, -7.44, -6.87, -6.28, -5.69, -5.69, -5.36, -3.6, -3.77, -4.42, -4.95, -5.24, -5.49, -5.6, -5.94, -5.36, -5.36, -5.94, -5.4, -6.0, -6.51, -6.07, -6.26, -5.36, -5.73, -5.94, -6.2, -5.29, -5.81, -6.26, -6.07, -6.8, -8.56, -9.24, -8.8, -7.15, -5.24, -3.77, -2.82, -1.73, -0.89, 0.0, 0.89, 1.84, 1.98, 1.84, 1.84, 1.84, 1.98, 1.84, 1.73, 1.73, 1.84, 1.73, 1.84, 2.64, 2.8, 2.8, 1.84, 1.84, 1.84, 1.73, 1.73, 0.94, 0.0, 0.0, -0.88, -3.93, -4.98, -4.15, -2.23, 0.0, 0.0, -2.24, -2.68, -3.13, -3.13, -3.58, -3.82, -3.35, 1.4, 6.26, 8.49, 8.05, 8.0, 7.37, 7.37, 5.95, 4.74, 4.11, 5.73, 6.71, -12.28, -11.75, -11.36, -10.83, -10.3, -9.38, -8.93, -8.0, -7.44, -6.87, -6.28, -6.28, -5.89, -3.8, -2.83, -3.4, -5.24, -6.01, -5.69, -4.74, -3.48, -1.4, -2.84, -4.92, -5.81, -5.81, -5.94, -6.07, -6.26, -6.71, -5.73, -5.6, -4.74, -3.91, -2.84, -1.58, -2.24, -2.68, -5.81, -8.05, -7.42, -6.52, -4.43, -2.64, -2.82, -1.73, -0.89, 0.0, 0.0, 0.0, 0.95, 0.89, 1.03, 1.03, 0.95, 0.89, 0.89, 1.73, 1.84, 1.73, 1.84, 2.8, 3.0, 2.64, 2.64, 1.96, 1.84, 1.72, 1.84, 1.84, 1.84, 2.95, 3.82, 0.0, -2.53, -3.82, -3.13, -1.9, -2.24, -2.8, -3.58, -3.58, -3.58, -4.02, -3.9, 0.0, 5.36, 8.05, 8.05, 7.6, 7.1, 6.94, 6.57, 5.49, 3.72, 4.98, 6.26, 7.1, -12.28, -12.28, -11.75, -11.22, -10.3, -9.76, -9.1, -8.55, -8.0, -7.44, -6.52, -6.28, -5.89, -4.5, -3.52, -3.6, -4.5, -4.94, -5.24, -3.47, 0.0, 2.0, 2.0, 0.0, 0.0, -2.2, -4.02, -4.47, -5.81, -5.36, -6.71, -5.6, -4.74, -3.55, -1.7, 1.4, 3.58, 3.79, -0.0, -4.98, -6.26, -5.51, -4.11, -1.98, 0.0, 0.0, 0.0, 0.0, 0.0, 0.0, 0.0, 0.0, 0.0, 0.0, 0.0, 0.0, 0.89, 0.89, 0.89, 1.73, 1.84, 2.8, 3.0, 1.84, 1.84, 1.84, 1.84, 0.89, 1.03, 0.96, 2.4, 3.93, 4.82, 4.92, 3.82, 1.9, 0.0, -2.24, -2.68, -2.21, -3.58, -3.13, -3.58, -4.02, -3.39, 1.26, 5.81, 6.71, 6.71, 6.71, 5.75, 5.34, 5.15, 4.58, 3.72, 5.94, 7.15, 7.15, -12.28, -12.28, -11.75, -11.22, -10.83, -10.3, -9.21, -8.93, -8.37, -7.44, -6.87, -6.23, -6.32, -5.53, -5.21, -3.91, -3.8, -4.12, -4.83, -3.0, 0.0, 2.0, 1.99, 2.8, 2.12, 1.73, 3.47, 3.79, 0.0, -6.26, -6.71, -6.51, -5.58, -3.0, 0.0, 3.35, 4.47, 4.4, 2.4, -0.0, 0.0, 0.0, 2.2, 1.84, 3.47, 3.72, 2.6, 1.98, 0.96, 0.0, 0.0, 0.0, 0.0, 0.0, 0.0, 0.0, 0.0, 0.0, 0.0, 0.89, 1.84, 1.84, 1.03, 1.84, 1.84, 1.84, 0.95, 0.89, 0.0, 1.05, 2.2, 3.48, 4.4, 4.82, 5.26, 3.9, 3.2, 0.0, 0.0, -0.0, -0.99, -2.24, -2.68, -2.97, -2.4, 0.0, 3.47, 5.36, 5.81, 5.81, 4.82, 4.22, 3.91, 4.58, 5.24, 6.64, 7.15, 7.15, -12.28, -12.28, -11.75, -11.36, -10.83, -10.3, -9.76, -9.21, -8.55, -8.0, -7.44, -7.23, -7.9, -7.15, -6.45, -6.45, -5.82, -5.1, -5.24, -3.22, 0.0, 0.0, 2.2, 3.49, 3.63, 4.29, 5.06, 6.08, 3.0, -3.79, -4.92, 0.0, 3.16, 3.22, 2.99, 4.29, 5.81, 6.07, 5.81, 5.81, 6.26, 6.07, 6.0, 6.4, 6.08, 4.89, 4.56, 4.56, 2.64, 1.84, 1.4, 0.0, 0.0, -0.95, -0.95, -0.83, -0.95, 0.0, 0.0, 0.0, 0.0, 0.0, 0.0, 0.0, 1.05, 0.0, 0.0, 0.0, 0.0, 0.0, 0.0, 0.79, 1.27, 2.21, 2.98, 3.72, 3.72, 3.35, 3.13, -0.0, -1.27, -2.4, -2.24, -2.21, -0.99, 0.0, 1.74, 4.24, 3.9, 3.9, 3.6, 3.58, 3.35, 4.74, 6.0, 7.08, 7.15, 7.15, -12.28, -12.28, -11.75, -11.75, -11.22, -10.68, -10.13, -9.21, -8.84, -8.55, -8.0, -8.0, -7.21, -6.28, -7.51, -7.6, -7.2, -6.55, -4.74, 0.0, 2.0, 3.48, 5.09, 5.94, 5.94, 5.21, 5.21, 6.0, 4.74, 1.84, 4.4, 6.71, 7.15, 6.4, 6.08, 4.74, 5.94, 5.36, 6.51, 6.51, 5.6, 5.6, 5.6, 4.98, 4.11, 3.91, 3.47, 2.82, 2.67, 2.67, 1.73, 0.0, -0.83, -1.96, -2.82, -2.82, -2.64, -1.84, -0.96, 0.0, 0.0, 0.0, 0.0, 0.0, 0.0, 0.0, -0.95, -0.82, -0.88, -1.05, -1.05, 0.0, 0.0, 0.0, 0.85, 1.4, 2.53, 2.84, 2.21, 2.24, -0.0, -2.21, -2.68, -1.9, -1.13, 0.0, 0.79, 1.8, 2.53, 2.98, 2.53, 2.41, 3.79, 5.24, 6.0, 6.45, 7.08, 7.15, -12.28, -12.28, -11.75, -11.75, -11.22, -10.83, -10.3, -9.76, -9.21, -8.65, -8.29, -8.65, -8.19, -6.97, -7.13, -6.79, -6.99, -2.0, 0.45, 1.79, 4.02, 4.24, 4.77, 4.92, 5.81, 5.81, 5.81, 5.81, 5.94, 5.58, 6.4, 6.45, 6.36, 5.37, 4.11, 4.74, 5.72, 7.06, 5.6, 5.58, 4.74, 4.89, 4.29, 4.84, 4.84, 3.79, 2.8, 1.84, 1.73, 0.94, 0.94, 0.0, -0.89, -1.96, -3.55, -4.58, -4.43, -3.79, -2.84, 0.0, 3.2, 4.0, 3.48, 1.19, 0.0, -1.72, -2.64, -2.8, -2.99, -2.76, -1.99, -1.83, -0.88, -0.98, 0.0, 0.0, 0.0, 0.0, 1.6, 3.2, 0.0, -2.4, -2.97, -2.54, -1.74, -0.79, 0.0, 0.0, 0.98, 0.87, 0.87, 2.48, 3.48, 4.11, 4.89, 6.0, 6.45, 6.64, -12.28, -11.88, -11.75, -11.75, -11.36, -11.22, -10.68, -10.13, -9.76, -9.21, -9.21, -8.94, -8.78, -7.93, -6.34, -4.45, -2.18, -0.53, 1.49, 1.7, 1.34, 1.34, 1.34, 4.47, 4.66, 4.66, 4.4, 2.24, 4.47, 5.51, 6.0, 5.95, 5.24, 4.54, 4.11, 4.54, 4.43, 5.24, 4.43, 4.43, 3.91, 4.11, 3.93, 5.09, 5.09, 3.93, 3.72, 3.0, 1.73, 0.0, 0.0, 0.89, 1.03, 0.0, -1.19, -2.95, -3.93, -4.92, -2.8, 3.82, 6.26, 6.88, 5.58, 3.91, 1.03, -0.95, -2.64, -4.74, -5.37, -4.98, -3.79, -3.35, -2.76, -2.95, -2.48, -2.53, -2.21, 0.0, 0.0, 1.2, 1.4, 0.0, -3.13, -4.02, -3.39, -2.84, -1.66, -0.88, 0.0, 0.0, 0.0, 0.87, 1.8, 2.2, 3.22, 4.54, 5.6, 5.94, -11.88, -11.88, -11.75, -11.75, -11.36, -11.22, -10.83, -10.68, -9.86, -9.5, -9.3, -9.3, -9.02, -8.53, -7.33, -5.64, -3.3, -1.1, 0.0, 0.0, 0.0, 0.0, 0.0, 0.45, 0.63, 0.6, 0.95, 1.34, 1.34, 2.17, 4.6, 5.58, 5.21, 4.89, 4.54, 4.11, 3.35, 2.99, 2.76, 2.76, 3.22, 3.93, 4.34, 4.47, 5.81, 5.51, 5.21, 4.43, 3.47, 3.47, 1.83, 2.53, 3.58, 4.0, 4.8, 4.4, 0.0, -5.36, -1.08, 5.58, 8.05, 7.85, 6.6, 5.58, 4.19, 2.12, 0.0, -3.22, -5.73, -5.73, -4.98, -4.98, -4.6, -4.4, -3.82, -3.58, -3.13, -2.68, -1.79, -1.26, 0.0, 0.0, 0.0, 0.0, -3.58, -3.82, -3.72, -2.84, -1.8, -1.8, -0.87, 0.0, 0.0, 0.0, 1.05, 2.76, 4.11, 4.98, -12.11, -11.88, -11.75, -11.75, -11.75, -11.36, -10.96, -10.41, -10.41, -9.86, -9.86, -9.37, -9.37, -9.08, -8.56, -7.22, -5.23, -3.3, -2.23, -1.05, -1.13, -0.71, -0.63, -0.45, 0.0, -0.0, 0.63, 0.89, 1.34, 2.24, 3.53, 5.94, 6.0, 4.98, 4.54, 3.79, 1.83, 2.2, 1.08, 2.48, 3.72, 3.9, 5.36, 5.36, 5.36, 5.81, 4.82, 5.21, 5.21, 5.58, 5.21, 5.51, 6.26, 6.71, 6.26, 4.6, 3.47, 0.0, 3.16, 6.21, 8.29, 8.82, 8.06, 8.06, 6.57, 5.58, 4.19, 0.99, -4.0, -4.92, -5.36, -4.77, -2.84, -0.0, -0.0, -0.0, -1.4, -1.4, -2.8, -3.13, -2.8, 0.0, 0.0, 1.26, 0.0, 0.0, -3.13, -3.58, -2.97, -1.98, -1.98, -2.84, -1.6, -1.08, 0.0, 1.05, 2.76, 3.79, -12.11, -12.11, -11.75, -11.75, -11.75, -11.75, -10.96, -10.96, -10.41, -10.41, -9.94, -9.94, -9.08, -9.08, -8.85, -7.95, -6.7, -5.26, -3.97, -3.37, -2.32, -2.22, -1.61, -1.26, -0.45, 0.0, 0.89, 1.34, 1.79, 2.68, 3.58, 4.34, 6.64, 6.0, 6.0, 4.74, 2.8, 1.08, 0.0, 2.21, 3.39, 4.47, 4.92, 4.66, 5.36, 5.36, 5.81, 5.81, 5.64, 6.07, 6.07, 6.26, 6.26, 6.26, 6.07, 5.21, 4.74, 2.68, 4.22, 8.05, 7.54, 7.15, 7.45, 7.45, 7.45, 7.45, 7.01, 5.58, 1.7, -5.36, -4.09, -0.0, 2.99, 4.89, 4.98, 3.16, 1.27, -0.0, -2.21, -3.13, -3.13, -2.68, -1.79, 0.0, 1.58, 3.2, 2.68, -0.0, -1.79, -2.21, -2.84, -3.6, -3.22, -2.41, -0.96, 1.05, 2.2, 2.2, -12.11, -12.11, -11.75, -11.75, -11.75, -11.75, -11.5, -10.96, -10.96, -10.51, -10.15, -9.66, -9.66, -9.42, -9.13, -8.53, -7.33, -6.33, -5.7, -4.66, -4.05, -2.8, -2.2, -1.6, -0.54, 0.0, 0.57, 1.2, 1.79, 3.13, 4.02, 4.92, 4.44, 7.01, 7.5, 5.75, 3.22, 0.98, 0.0, 3.58, 3.58, 4.02, 4.4, 4.66, 4.66, 5.36, 5.36, 5.36, 5.36, 5.81, 5.81, 6.26, 6.26, 5.51, 5.51, 4.84, 4.84, 5.21, 6.4, 7.45, 5.81, 5.81, 5.51, 5.51, 5.21, 5.58, 4.29, 4.56, 3.4, 0.0, -0.0, 4.54, 6.21, 7.37, 7.15, 6.26, 3.82, -0.0, -2.53, -3.82, -3.82, -3.58, -3.13, -2.68, 0.0, 1.58, 3.82, 3.58, 2.24, 0.0, 0.0, -3.9, -3.22, -2.68, -1.66, 0.0, 0.0, 0.0, -12.11, -12.11, -11.88, -11.75, -11.75, -11.75, -11.5, -11.5, -11.34, -10.7, -10.51, -10.01, -10.01, -9.42, -9.08, -8.82, -7.93, -6.98, -6.34, -5.32, -4.45, -3.42, -2.82, -1.57, -0.57, 0.0, 0.0, 0.0, 0.89, 3.09, 3.98, 4.92, 5.33, 8.05, 7.6, 7.15, 5.73, 4.47, 4.02, 4.92, 5.36, 4.92, 5.36, 4.34, 5.09, 5.36, 5.36, 5.36, 5.36, 5.36, 5.36, 5.36, 5.09, 5.09, 4.46, 4.46, 4.84, 4.84, 5.21, 5.6, 5.51, 5.09, 4.4, 3.48, 3.79, 3.16, 3.47, 3.72, 3.72, 3.16, 4.11, 4.81, 6.57, 7.1, 7.6, 7.37, 5.7, 2.68, -1.4, -2.84, -3.72, -4.34, -4.34, -3.13, -2.68, -2.24, 2.8, 3.2, 2.53, 2.53, -1.79, -4.02, -3.95, -2.84, -2.0, -1.8, -0.87, -0.87, -12.11, -12.11, -11.88, -11.88, -11.75, -11.75, -11.5, -11.5, -11.34, -11.07, -10.87, -10.23, -10.01, -9.66, -9.08, -8.5, -8.22, -7.61, -6.34, -5.06, -4.44, -3.6, -2.77, -1.7, -0.54, -0.55, -1.8, -0.57, 0.45, 3.09, 3.54, 3.98, 4.8, 5.57, 6.3, 7.76, 7.12, 6.4, 6.07, 5.94, 6.51, 6.51, 6.26, 6.26, 5.81, 5.36, 4.92, 4.92, 4.92, 4.92, 4.92, 4.92, 4.4, 4.4, 3.79, 3.79, 3.79, 3.79, 3.79, 3.79, 3.79, 3.48, 2.0, 0.0, 0.0, 1.27, 1.08, 1.52, 3.22, 4.8, 5.81, 4.98, 5.94, 6.26, 6.64, 6.57, 6.21, 5.4, 3.82, 3.13, 1.9, -0.0, -2.84, -3.13, -3.13, -2.68, 0.0, 2.4, 3.39, 3.72, 2.68, -3.58, -4.02, -2.98, -2.23, -2.53, -1.9, -1.9, -12.11, -12.11, -11.88, -11.88, -11.88, -11.75, -11.5, -11.5, -11.5, -11.07, -11.07, -10.59, -10.23, -10.01, -9.08, -10.24, -8.45, -7.9, -6.69, -5.32, -4.63, -4.66, -3.83, -3.4, -1.84, -2.4, -1.2, 0.0, 3.58, 3.07, 3.09, 3.53, 3.87, 4.4, 4.84, 5.29, 5.01, 4.71, 4.74, 5.72, 4.98, 5.4, 6.26, 6.26, 6.58, 5.51, 4.92, 4.92, 4.92, 4.92, 4.92, 4.92, 4.4, 4.4, 3.79, 3.79, 3.48, 3.48, 3.48, 2.2, 2.2, 2.2, 2.2, 0.0, 0.0, 0.0, 0.0, 0.0, 1.84, 3.2, 4.56, 4.43, 4.74, 4.89, 4.89, 5.58, 5.58, 6.16, 6.16, 5.94, 4.77, 2.48, -0.0, -1.9, -2.68, 0.0, 0.0, 1.79, 3.13, 2.98, 3.82, 0.0, -3.13, -2.68, -1.4, -2.21, -1.9, -1.9, -12.11, -12.11, -12.11, -11.88, -11.88, -12.14, -11.88, -11.88, -11.5, -11.07, -11.07, -10.59, -10.59, -10.01, -9.66, -8.78, -8.73, -8.15, -8.64, -7.18, -6.57, -5.72, -5.72, -5.89, -3.91, -1.2, -0.0, 1.86, 2.6, 2.24, 2.68, 3.07, 3.39, 3.35, 4.0, 3.79, 4.11, 3.49, 3.49, 2.86, 3.35, 3.6, 4.02, 4.44, 4.4, 5.6, 4.66, 4.92, 4.92, 4.92, 5.36, 5.36, 5.09, 5.09, 4.4, 3.93, 2.98, 2.23, 1.27, 0.0, 0.0, 0.0, 0.0, 0.0, 0.0, 0.0, 0.0, 1.05, 1.84, 2.67, 2.57, 2.6, 1.7, 0.85, 0.89, 2.16, 3.79, 4.98, 6.16, 6.45, 6.26, 4.98, 2.0, -0.0, -0.0, -0.0, 0.0, 0.0, 1.79, 2.4, 3.35, 4.02, 2.68, 0.0, 0.0, 0.0, 0.0, 0.0, -12.11, -12.11, -12.11, -11.88, -11.88, -11.75, -11.88, -11.88, -11.88, -11.62, -11.07, -10.8, -10.59, -10.01, -9.66, -9.37, -8.73, -8.08, -8.0, -9.0, -7.59, -6.23, -6.87, -5.69, -3.22, -0.54, 0.89, 1.7, 1.79, 1.79, 1.79, 2.17, 2.4, 3.07, 3.14, 3.16, 2.86, 2.86, 2.86, 2.84, 3.14, 3.6, 3.98, 4.92, 5.24, 6.64, 5.09, 4.92, 5.36, 5.36, 5.36, 5.36, 5.09, 5.09, 4.84, 4.29, 3.22, 1.66, 0.0, 0.0, 0.0, 0.0, 0.0, 0.0, 0.0, 1.13, 0.98, 1.05, 1.98, 2.67, 2.47, 0.0, -1.7, -2.59, -1.73, 0.0, 2.53, 4.29, 5.6, 5.6, 5.94, 5.81, 4.0, 1.13, -0.0, -0.0, -2.68, -2.24, -1.79, 0.0, 2.21, 3.82, 4.02, 2.68, 1.79, 0.0, 0.0, 0.0, -11.6, -11.99, -11.99, -11.75, -11.75, -11.75, -11.88, -11.88, -11.88, -11.62, -11.44, -11.16, -10.59, -10.23, -10.01, -9.37, -8.73, -8.65, -8.73, -8.15, -6.01, -5.49, -6.41, -6.7, -5.08, -2.4, 0.0, 0.63, 0.89, 1.34, 1.34, 1.7, 1.86, 2.15, 2.21, 2.53, 2.23, 2.23, 2.53, 2.79, 3.6, 3.6, 4.3, 4.89, 5.34, 5.09, 5.64, 5.81, 6.26, 6.26, 6.26, 5.64, 5.09, 5.09, 5.09, 4.84, 3.63, 2.16, 0.0, -3.16, -2.53, -2.23, -1.13, 0.0, 0.0, 1.13, 1.27, 1.19, 1.99, 2.82, 2.69, 0.0, -2.48, -4.34, -2.4, 0.0, 1.0, 2.98, 4.15, 4.57, 5.6, 5.75, 5.73, 4.47, 3.2, -0.0, 0.0, 0.0, -0.0, -2.24, 0.0, 2.24, 3.13, 3.13, 2.24, 0.0, 0.0, 0.0, -11.6, -11.6, -11.6, -11.75, -11.75, -11.75, -11.88, -11.88, -11.88, -11.62, -11.44, -11.16, -10.8, -10.59, -10.01, -9.59, -9.3, -8.73, -8.73, -8.19, -6.35, -5.06, -5.21, -6.28, -5.93, -4.12, -2.22, -0.71, 0.0, 0.89, 0.89, 1.2, 1.6, 1.86, 1.9, 1.88, 2.21, 2.53, 2.79, 3.07, 3.6, 3.82, 3.87, 4.44, 4.92, 5.36, 6.26, 6.26, 6.71, 6.71, 6.71, 6.07, 5.64, 5.51, 5.09, 4.84, 4.11, 3.91, 0.0, -3.82, -4.34, -2.53, -1.4, 0.0, 0.0, 0.0, 1.27, 0.98, 1.19, 0.88, 3.2, 4.47, -1.03, -1.7, -2.84, -1.26, 0.0, 1.79, 3.13, 3.9, 4.57, 5.94, 6.36, 5.94, 5.73, 4.92, 4.47, 4.77, 4.4, 2.48, -0.0, -0.0, 2.24, 2.24, 1.58, 0.0, 0.0, 0.0, -11.6, -11.6, -11.6, -11.6, -11.75, -11.75, -11.5, -11.88, -11.88, -11.62, -11.62, -11.16, -11.16, -10.59, -10.51, -9.59, -9.3, -9.3, -8.78, -8.78, -7.3, -5.44, -4.43, -5.21, -5.86, -5.35, -4.11, -1.84, -0.6, 0.0, 0.45, 0.89, 0.95, 1.26, 1.58, 1.58, 1.9, 2.5, 2.68, 3.07, 3.39, 3.82, 3.87, 3.87, 4.3, 4.44, 6.71, 6.71, 6.71, 6.71, 7.15, 6.58, 6.07, 6.07, 5.51, 4.84, 4.29, 4.54, 3.22, -3.16, -4.02, -3.13, 0.0, 0.0, 1.9, 1.6, 1.27, 1.55, 0.0, 0.0, 1.03, 3.47, -0.0, -1.05, -1.7, -0.0, -0.0, -0.0, 4.02, 2.68, 3.9, 4.57, 5.09, 6.02, 6.16, 6.45, 6.26, 5.81, 5.36, 3.82, -0.0, -0.0, -0.0, 0.0, 0.0, 0.0, 0.0, 0.0, -11.6, -11.6, -11.6, -11.6, -11.75, -11.75, -11.5, -11.88, -11.88, -11.62, -11.62, -11.16, -11.16, -10.59, -10.51, -9.94, -9.86, -9.37, -9.02, -8.78, -8.19, -6.67, -5.1, -4.43, -5.21, -5.29, -4.71, -3.43, -1.24, 0.0, 0.0, 0.0, -0.0, 0.95, 1.26, 1.26, 1.86, 2.4, 2.8, 2.91, 3.53, 3.53, 3.53, 3.53, 3.39, 3.39, 3.39, 3.53, 3.53, 4.02, 4.47, 7.01, 6.58, 6.58, 6.07, 4.84, 4.84, 4.29, 5.21, 2.2, 0.0, -2.24, 0.0, 2.68, 2.8, 2.53, 2.48, 1.08, 0.0, 0.0, 0.0, 1.27, -0.0, -1.84, -1.98, -1.05, -0.0, -0.0, 2.84, 2.8, 3.58, 4.47, 4.85, 5.09, 6.0, 6.0, 6.2, 5.73, 4.77, 3.39, 2.68, -1.13, -1.2, -1.58, 0.0, 0.0, 0.0, 0.0, -11.2, -11.2, -11.6, -11.36, -11.36, -11.75, -11.5, -11.5, -11.88, -11.62, -11.62, -11.16, -11.16, -10.59, -10.51, -9.94, -9.86, -9.59, -9.37, -9.02, -8.45, -7.59, -6.34, -5.08, -5.01, -5.29, -4.94, -3.73, -2.53, -1.26, 0.0, 0.0, 0.0, -0.0, 0.63, 1.2, 1.7, 2.12, 2.6, 3.07, 3.53, 3.58, 3.58, 3.13, 2.63, 2.4, 2.4, 2.49, 3.07, 3.53, 4.02, 4.02, 6.71, 7.01, 6.64, 6.0, 5.51, 5.09, 4.84, 4.74, 4.11, 3.16, 2.68, 3.13, 3.58, 3.35, 3.16, 2.2, 0.0, 0.0, -1.03, 0.0, 0.0, -0.96, -2.12, -2.12, -0.88, -0.0, 1.27, 2.23, 4.0, 4.38, 4.47, 4.85, 5.09, 5.94, 6.45, 6.0, 4.98, 4.22, 4.98, -0.99, -1.98, -1.9, -1.79, 0.0, 0.0, 0.0, -11.08, -11.08, -11.08, -11.22, -11.22, -11.36, -11.5, -11.5, -11.5, -11.24, -11.44, -11.16, -10.8, -10.59, -10.51, -10.15, -10.23, -9.86, -9.86, -9.3, -8.73, -8.15, -7.55, -6.32, -5.65, -5.01, -4.94, -4.65, -3.43, -2.21, -1.26, -1.26, -0.63, 0.0, 0.0, 0.45, 1.34, 1.79, 2.24, 2.68, 3.13, 3.58, 3.98, 3.07, 2.24, 2.12, 1.86, 2.4, 2.91, 3.53, 3.53, 4.02, 4.02, 4.44, 6.45, 5.6, 5.6, 5.51, 4.29, 4.11, 3.0, 3.22, 3.79, 3.9, 5.36, 3.72, 3.48, 1.05, 0.0, 0.0, -0.96, 0.0, 1.05, 2.53, 2.21, -0.0, -0.0, -0.0, -0.0, 2.4, 4.11, 4.6, 4.38, 4.47, 4.92, 5.29, 6.0, 5.95, 6.0, 5.94, 6.02, 5.75, -0.0, -1.27, -1.58, 0.0, 0.0, 0.0, -11.08, -11.08, -11.08, -10.83, -11.22, -11.22, -11.34, -11.34, -11.5, -11.07, -11.07, -11.07, -10.8, -10.87, -10.51, -10.51, -10.15, -10.23, -9.86, -9.3, -8.73, -8.15, -7.81, -6.95, -6.28, -5.32, -5.29, -5.29, -4.37, -3.48, -2.53, -1.9, -1.26, -0.63, 0.0, 0.0, 0.95, 1.6, 2.12, 2.68, 3.13, 3.53, 3.87, 3.82, 2.91, 0.89, -0.0, 1.9, 2.91, 3.53, 3.58, 3.58, 3.58, 3.98, 4.3, 5.94, 6.0, 6.07, 4.98, 4.11, 2.99, 2.76, 3.79, 4.98, 4.57, 4.46, 1.05, 0.0, 0.0, 0.0, 0.0, 0.0, 0.0, 2.16, 4.98, 5.36, 3.48, -0.0, -0.0, 0.96, 2.8, 3.43, 2.91, 4.02, 4.02, 4.38, 4.8, 5.6, 6.45, 6.64, 7.08, 6.45, 4.34, -0.0, -1.2, -1.26, -1.79, -1.79, -11.08, -11.08, -11.08, -10.83, -11.22, -10.96, -10.96, -11.34, -11.34, -11.07, -11.07, -11.07, -10.8, -10.87, -10.51, -10.51, -10.15, -9.86, -9.86, -9.3, -8.73, -8.38, -8.15, -7.55, -6.92, -6.62, -5.98, -5.35, -4.71, -4.07, -3.16, -2.53, -1.9, -1.26, 0.0, 0.0, 0.6, 1.26, 1.86, 2.6, 3.07, 3.53, 3.98, 5.51, 5.51, 1.86, 0.63, 2.68, 4.43, 4.02, 3.58, 3.53, 3.53, 3.53, 3.53, 3.82, 6.07, 6.0, 4.89, 4.43, 3.63, 3.22, 4.29, 5.4, 4.98, 3.22, 1.84, 0.0, -1.98, -1.98, -0.89, -0.89, 0.0, 1.08, 4.77, 5.81, 6.17, 3.93, -0.0, -0.0, 0.96, 2.84, 2.68, 2.24, 4.02, 4.02, 4.38, 5.26, 5.81, 6.2, 6.2, 5.94, 5.75, 3.58, -0.0, -1.58, -2.24, -2.24, -11.08, -11.08, -10.83, -10.83, -10.83, -10.96, -10.96, -10.96, -10.96, -11.07, -11.07, -11.07, -10.59, -10.51, -10.51, -10.51, -9.94, -9.86, -9.3, -9.21, -9.01, -8.65, -8.15, -7.81, -7.51, -6.92, -6.28, -5.65, -4.74, -3.83, -3.2, -2.48, -1.84, -1.2, -0.71, 0.0, 0.57, 1.24, 1.58, 2.4, 2.91, 3.32, 3.39, 3.87, 4.11, 4.29, 3.82, 4.02, 4.44, 4.3, 3.6, 3.2, 3.39, 3.39, 3.32, 3.32, 3.07, 3.35, 4.89, 4.89, 4.89, 4.11, 4.6, 4.6, 3.22, 3.22, 2.6, 0.0, -2.99, -4.43, -3.91, -1.99, 0.0, 0.0, 2.53, 4.6, 6.2, 6.26, 4.4, 1.05, -0.0, 1.2, 1.61, 1.86, 1.79, 3.58, 4.02, 3.47, 3.9, 3.95, 4.38, 4.98, 4.46, 5.26, 2.68, -0.0, -1.79, -1.79, -10.55, -10.55, -10.3, -10.68, -10.68, -10.41, -10.79, -10.79, -10.51, -10.7, -10.7, -10.87, -10.23, -10.23, -10.51, -9.94, -9.86, -9.3, -9.21, -9.01, -8.65, -8.15, -8.15, -7.81, -7.23, -6.92, -6.32, -5.69, -4.75, -4.45, -3.83, -3.12, -2.48, -1.13, -0.61, 0.0, 0.0, 1.2, 1.61, 2.5, 2.5, 3.07, 3.07, 3.07, 3.07, 4.29, 4.98, 4.4, 4.27, 3.72, 3.14, 2.79, 2.79, 3.07, 3.07, 3.07, 2.5, 2.53, 3.14, 4.54, 4.43, 4.89, 4.54, 3.22, 2.95, 2.2, 1.99, 1.63, 0.0, -5.21, -3.48, -1.08, 0.0, 0.0, 1.08, 3.22, 4.98, 5.81, 5.73, 3.48, 0.88, -0.0, -0.0, 0.71, 1.26, 1.79, 1.2, 2.98, 1.9, 2.4, 2.97, 3.6, 4.22, 4.19, 3.9, 1.79, 0.0, 0.0, -10.55, -10.55, -10.3, -10.68, -10.41, -10.41, -10.41, -10.51, -10.51, -10.51, -10.51, -10.51, -10.51, -10.01, -9.94, -9.59, -9.3, -8.94, -9.01, -8.44, -8.15, -8.15, -8.15, -7.55, -7.55, -6.95, -6.64, -6.01, -5.89, -4.74, -4.43, -3.49, -2.86, -1.76, -1.13, 0.0, 0.0, 0.61, 1.16, 1.88, 2.53, 2.53, 2.53, 2.53, 2.21, 2.53, 2.84, 2.86, 3.16, 2.84, 2.51, 2.53, 2.53, 2.53, 2.53, 2.53, 2.53, 2.53, 2.53, 2.23, 3.63, 3.91, 3.22, 2.95, 1.83, 0.96, 0.96, 1.63, 0.0, 0.0, 0.0, 2.2, 1.73, 0.0, -0.0, 1.98, 3.22, 4.0, 4.57, 3.83, 1.8, -0.0, -0.87, -0.0, -0.0, 0.63, 0.63, 0.57, 1.27, 1.26, 2.24, 3.13, 4.0, 4.22, 4.22, 2.68, 0.0, 0.0, -10.3, -10.3, -10.3, -10.3, -10.41, -10.41, -10.41, -10.15, -10.15, -10.51, -10.51, -10.51, -10.01, -9.66, -9.37, -9.37, -9.08, -8.15, -8.15, -8.15, -7.81, -7.81, -7.55, -7.55, -7.55, -6.95, -6.34, -6.32, -5.1, -5.53, -4.37, -4.11, -3.12, -2.22, -1.11, -0.59, 0.0, 0.59, 1.13, 1.84, 1.84, 2.23, 2.23, 2.23, 2.23, 1.84, 1.84, 1.8, 1.8, 2.23, 2.23, 2.23, 2.23, 2.23, 1.84, 1.84, 1.84, 2.23, 1.84, 1.84, 2.48, 2.99, 2.8, 2.2, 0.96, 1.19, 0.96, 1.05, 1.73, 1.73, 3.47, 3.72, 0.89, 0.0, 0.0, 0.96, 0.96, 1.27, 2.23, 2.84, 1.98, -0.0, -0.99, -1.98, -0.42, -0.0, 0.0, 0.0, 0.0, 1.9, 2.68, 2.68, 3.13, 4.0, 4.22, 3.72, 2.24, 2.24, -10.3, -10.3, -10.3, -10.3, -9.86, -10.23, -9.94, -9.94, -9.94, -9.94, -9.94, -9.94, -9.66, -9.66, -9.37, -8.78, -8.19, -8.15, -8.15, -8.15, -7.88, -7.27, -7.27, -7.27, -7.27, -6.97, -6.65, -6.34, -5.72, -4.08, -3.47, -3.22, -2.86, -2.22, -1.76, -0.57, 0.0, 0.0, 0.57, 1.27, 1.8, 1.8, 2.23, 2.23, 1.8, 1.8, 1.8, 1.8, 1.8, 1.6, 1.84, 1.84, 1.84, 1.84, 1.84, 1.6, 1.6, 1.6, 1.6, 1.6, 3.0, 3.0, 2.8, 1.84, 1.08, 1.08, 1.08, 0.96, 1.52, 1.63, 2.8, 3.4, 0.0, 0.0, 0.0, 1.4, -0.0, -0.0, -0.0, 0.87, 2.21, 1.2, -0.0, -1.2, -0.99, -1.2, -0.89, -0.99, 0.0, 1.4, 2.68, 2.8, 2.68, 2.97, 3.6, 4.22, 2.98, 2.98, -9.76, -9.76, -10.13, -10.13, -9.86, -9.86, -9.94, -9.94, -9.94, -9.94, -9.94, -9.94, -9.42, -9.08, -8.82, -8.19, -8.19, -7.86, -8.15, -7.59, -7.59, -7.59, -7.27, -7.27, -6.97, -6.97, -6.35, -6.35, -5.72, -4.45, -3.4, -3.0, -2.36, -2.2, -1.08, -0.55, 0.0, 0.0, 0.63, 1.23, 1.23, 1.76, 1.76, 1.76, 1.76, 1.23, 1.11, 1.11, 1.27, 1.27, 1.13, 1.13, 1.13, 1.13, 1.13, 1.13, 1.13, 1.13, 1.13, 1.27, 1.8, 3.2, 3.0, 1.52, 1.84, 1.7, 1.08, 0.96, 1.05, 1.05, 1.7, 1.73, 0.0, 0.0, 0.0, 1.19, 0.0, -1.27, -0.0, -0.0, 1.13, 1.0, -0.0, -0.0, -0.85, -1.2, -1.27, -2.23, 0.0, 0.0, 2.68, 1.9, 2.8, 2.68, 2.97, 3.6, 3.58, 3.58, -9.76, -9.76, -9.76, -9.86, -9.86, -9.86, -9.59, -9.59, -9.59, -9.37, -9.37, -9.37, -9.08, -8.5, -8.5, -8.78, -8.19, -7.86, -7.59, -7.59, -7.59, -7.59, -7.28, -6.69, -6.69, -6.69, -6.35, -5.72, -5.72, -5.09, -4.03, -2.89, -2.26, -1.65, -1.14, -0.59, 0.0, 0.0, 0.54, 0.61, 1.19, 1.73, 1.73, 1.19, 1.19, 0.55, 0.57, 0.57, 1.11, 1.27, 1.13, 1.13, 1.13, 1.13, 1.13, 1.13, 1.27, 1.27, 1.13, 1.27, 1.11, 1.23, 1.4, 0.96, 1.05, 1.7, 1.08, 0.96, 0.0, 0.96, 0.0, 0.96, 1.49, 0.0, 0.0, 0.0, 0.0, 0.0, 1.19, 1.55, 0.87, 1.2, 1.0, 1.58, -0.0, -1.79, -1.2, 0.0, 0.0, 1.4, 1.9, 2.68, 1.9, 2.4, 2.68, 2.97, 3.58, 3.58, -9.76, -9.76, -9.76, -9.86, -9.86, -9.86, -9.59, -9.37, -9.37, -9.37, -9.37, -9.37, -8.5, -8.5, -8.78, -8.52, -8.19, -7.9, -7.59, -7.59, -7.3, -7.3, -6.98, -6.98, -6.69, -6.35, -6.35, -5.72, -5.72, -5.08, -4.44, -3.35, -2.89, -1.71, -1.18, -0.57, 0.0, 0.0, 0.0, 0.53, 1.16, 1.16, 1.7, 1.84, 1.19, 1.08, 0.63, 0.57, 0.57, 0.59, 0.59, 0.59, 0.59, 0.59, 0.59, 0.59, 0.66, 0.57, 0.57, 0.57, 0.57, 0.57, 0.0, 0.96, 1.05, 1.7, 1.08, 0.0, 0.0, 0.0, 0.0, 0.0, 0.0, 0.0, -0.95, -1.84, -0.96, 0.0, 3.16, 2.53, 0.87, 0.99, 1.2, 2.4, 2.24, 1.58, 1.2, 1.13, 1.27, 1.13, 1.4, 2.68, 1.9, 2.21, 2.68, 2.68, 2.97, 3.6, -9.76, -9.76, -9.76, -9.5, -9.86, -9.86, -9.37, -9.37, -9.37, -9.37, -9.37, -8.5, -8.5, -8.5, -8.5, -8.19, -8.19, -7.6, -7.6, -7.3, -7.3, -6.98, -6.98, -6.98, -6.35, -6.35, -5.98, -5.72, -5.32, -5.08, -4.44, -4.0, -2.86, -2.37, -1.71, -1.09, -0.56, 0.0, 0.0, 0.0, 0.58, 0.59, 1.16, 1.73, 1.84, 1.16, 0.55, 0.57, 0.57, 0.59, 1.13, 1.13, 1.13, 0.59, 0.59, 0.66, 0.57, 0.57, 0.0, 0.0, 0.0, 0.0, 0.0, 0.0, 0.0, 0.0, 0.0, 0.0, 0.0, 0.0, 0.0, 0.0, 0.0, 0.0, -1.05, -3.72, -3.2, -0.0, 1.8, 2.68, 1.98, 1.98, 2.21, 2.4, 2.24, 2.4, 1.2, 0.0, 0.0, 1.13, 1.6, 2.21, 2.68, 2.21, 1.9, 2.24, 2.0, 2.97, -9.76, -9.76, -9.76, -9.5, -9.5, -9.66, -9.66, -9.37, -9.37, -9.37, -8.78, -8.5, -8.5, -8.5, -8.22, -7.9, -7.9, -7.9, -7.6, -7.6, -7.27, -6.98, -6.7, -6.7, -6.34, -6.08, -5.7, -5.72, -5.32, -4.66, -4.66, -4.0, -3.35, -2.71, -2.37, -1.71, -1.09, -0.56, 0.0, 0.0, 0.0, 0.58, 0.59, 1.16, 1.84, 1.67, 1.07, 1.23, 1.11, 1.11, 1.11, 1.11, 1.11, 0.57, 0.57, 0.57, 0.57, 0.0, 0.0, 0.0, 0.0, 0.0, 0.0, 0.0, 0.0, 0.0, 0.0, 0.0, 1.08, 0.0, 0.0, 0.0, 0.0, 0.0, 0.0, -3.82, -3.72, -0.0, -0.0, 0.87, 1.13, 1.74, 2.21, 2.0, 2.24, 1.2, 0.0, 0.0, 0.0, 0.0, 0.0, 1.4, 2.24, -0.0, 1.58, 2.24, 1.79, 2.0, -9.76, -9.76, -9.76, -9.76, -9.3, -9.3, -9.3, -9.02, -9.02, -8.78, -8.78, -8.5, -8.5, -8.22, -8.22, -7.9, -7.9, -7.9, -7.6, -7.6, -6.98, -6.98, -6.98, -6.34, -6.34, -6.34, -5.7, -5.7, -5.06, -4.63, -4.66, -4.0, -3.52, -2.86, -2.21, -1.71, -1.16, -1.18, -0.56, 0.0, 0.0, 0.0, 0.0, 0.53, 0.58, 1.75, 1.67, 1.7, 1.88, 1.73, 1.73, 1.19, 1.19, 0.55, 0.55, 0.55, 0.0, 0.0, 0.0, 0.0, 0.0, 0.0, 0.0, 0.0, 0.0, 0.0, 0.0, 0.0, 1.08, 0.0, 0.0, -1.05, -1.63, 0.0, 2.4, -0.0, -2.2, -2.2, -1.08, -1.27, -0.0, 2.21, 2.8, 2.24, 1.26, 0.0, 0.0, 0.0, 0.0, 0.0, 0.0, 0.0, 0.0, -0.0, -0.0, 0.0, 0.0, 0.0, -9.76, -9.76, -9.76, -9.58, -9.3, -9.3, -9.3, -9.02, -8.78, -8.78, -8.78, -8.5, -8.5, -8.22, -7.9, -7.9, -7.9, -7.6, -7.6, -7.32, -7.32, -6.98, -6.98, -6.61, -6.34, -6.34, -5.7, -5.7, -5.06, -4.63, -4.42, -3.97, -3.52, -2.86, -2.33, -2.37, -1.71, -1.09, -0.59, -0.56, 0.0, 0.0, 0.0, 0.0, 0.0, 0.57, 1.12, 1.8, 1.67, 1.14, 1.14, 1.16, 0.59, 0.54, 0.61, 0.0, 0.0, 0.0, 0.0, 0.0, 0.0, 0.0, 0.0, 0.0, 0.0, 0.0, 0.0, 0.0, 0.0, 0.0, -1.05, -1.84, -1.73, 0.0, 0.0, 2.2, 2.68, -0.0, -1.27, -1.6, 1.58, 3.58, 3.58, 2.68, 2.24, 2.8, 2.23, 2.23, 1.27, 1.27, 1.13, 0.0, 0.0, 0.0, 0.0, 0.0, 0.0, 0.0, -9.21, -9.21, -9.58, -9.58, -9.58, -9.3, -9.3, -9.3, -8.78, -8.78, -8.78, -8.5, -8.22, -8.22, -7.9, -7.9, -7.9, -7.6, -7.6, -7.32, -6.98, -6.98, -6.98, -6.61, -6.34, -5.69, -5.95, -5.7, -5.29, -4.63, -4.63, -3.97, -3.32, -3.01, -2.86, -2.21, -1.81, -1.16, -1.09, -0.59, 0.0, 0.0, 0.0, 0.0, 0.0, 0.0, 0.57, 0.57, 0.57, 0.57, 0.58, 0.58, 0.53, 0.0, 0.0, 0.0, 0.0, 0.0, 0.0, -0.55, -0.55, -0.55, -0.61, 0.0, 0.0, 1.52, 1.7, 0.0, 0.0, 0.0, -0.88, -1.84, -1.98, -0.89, 0.0, 1.98, 3.72, 2.99, 2.2, 3.16, 4.4, 4.15, 4.02, 2.97, 2.8, 3.13, 3.82, 3.16, 2.48, 2.23, 2.53, 1.6, 1.4, -0.0, -0.0, 0.0, 0.0, 0.0, -9.21, -9.21, -9.21, -9.21, -9.21, -9.3, -8.94, -8.73, -8.73, -8.78, -8.78, -8.78, -8.22, -8.22, -7.9, -7.9, -7.9, -7.6, -7.6, -7.32, -6.98, -6.98, -6.98, -6.61, -6.33, -6.08, -5.69, -5.04, -5.29, -4.63, -4.63, -3.97, -3.49, -3.32, -3.01, -2.33, -1.69, -1.16, -1.16, -0.55, -0.55, 0.0, 0.0, 0.0, 0.0, 0.0, 0.0, 0.0, 0.0, 0.0, 0.0, 0.0, 0.0, 0.0, 0.0, 0.0, 0.0, 0.0, -0.54, -0.61, -0.55, -0.55, -0.61, 0.0, 0.0, 1.63, 1.41, 0.0, 0.0, -0.96, -1.63, -1.84, -1.98, -0.95, 0.0, 1.84, 2.82, 3.6, 3.45, 4.5, 5.24, 4.19, 3.39, 2.41, 2.84, 2.97, 3.13, 3.35, 3.35, 2.53, 2.84, 1.2, 0.0, 0.0, 0.0, 0.0, 0.0, 0.0, -9.21, -9.21, -9.21, -9.21, -9.21, -9.21, -8.94, -8.73, -8.73, -8.45, -8.45, -8.78, -8.22, -8.22, -7.9, -7.9, -7.9, -7.6, -7.6, -7.32, -6.98, -6.98, -6.98, -6.61, -6.61, -6.08, -5.69, -5.26, -5.29, -4.84, -4.63, -4.16, -3.49, -3.49, -2.83, -2.33, -1.69, -1.69, -1.16, -1.16, -0.55, -0.59, 0.0, 0.0, 0.0, 0.0, 0.0, 0.0, 0.0, 0.0, 0.0, 0.0, 0.0, 0.0, 0.0, 0.0, -0.59, -0.59, -0.54, -0.54, -1.19, -1.19, -1.19, -0.61, 0.0, 0.0, 0.0, 0.0, 0.0, -2.16, -1.84, -1.84, -0.96, 0.0, 0.0, 0.95, 1.73, 1.84, 2.54, 3.8, 4.5, 3.79, 2.48, 1.7, 2.68, 2.98, 3.13, 3.13, 3.39, 4.02, 0.0, 0.0, 0.0, 0.0, 0.0, 0.0, 0.0, 0.0, -9.21, -9.21, -9.21, -9.21, -9.01, -9.01, -9.01, -8.73, -8.73, -8.73, -8.45, -8.45, -8.19, -7.9, -7.9, -7.9, -7.9, -7.9, -7.6, -7.6, -6.98, -6.98, -6.98, -6.61, -6.34, -6.34, -5.95, -5.7, -5.29, -4.84, -4.63, -4.16, -3.49, -3.49, -2.83, -2.33, -2.21, -1.69, -1.16, -1.16, -0.55, -0.59, -0.56, 0.0, 0.0, 0.0, 0.0, 0.0, 0.0, 0.0, 0.0, 0.0, 0.0, 0.0, -0.59, -0.59, -0.59, -0.59, -0.59, -1.16, -1.07, -1.19, -1.19, -1.08, -0.55, 0.0, 0.0, 0.0, 0.0, 0.0, -0.96, -0.96, 0.0, 0.0, 0.0, 0.0, 0.0, 0.94, 1.84, 2.67, 3.4, 2.53, -0.0, 0.82, 2.53, 3.58, 3.9, 3.13, 3.13, 2.24, 0.0, 0.0, 0.0, 0.0, -0.0, -0.0, -0.0, -0.0, -9.21, -9.21, -9.01, -8.65, -8.65, -8.65, -8.65, -8.73, -8.73, -8.73, -8.45, -8.19, -8.19, -7.9, -7.9, -7.9, -7.9, -7.9, -7.6, -7.6, -7.32, -6.98, -6.98, -6.34, -6.34, -5.95, -5.95, -5.7, -5.29, -4.63, -4.63, -4.16, -3.97, -3.32, -3.01, -2.86, -2.21, -1.81, -1.71, -1.16, -1.09, -0.59, -0.56, -0.56, -0.56, -0.57, 0.0, 0.0, 0.0, 0.0, 0.0, 0.0, 0.0, -0.58, -0.53, -0.59, -0.59, -1.16, -1.16, -1.16, -1.16, -1.7, -1.73, -1.76, -1.23, -1.32, 0.0, 0.0, 0.0, 0.0, 0.0, 0.0, 0.0, 0.0, 0.0, 0.0, 0.0, 0.0, 1.73, 2.67, 2.82, 0.0, -2.16, -0.0, 3.33, 4.11, 4.15, 3.58, 1.79, 0.0, 0.0, 0.0, 0.0, -0.0, -0.0, -0.0, -0.0, -0.0, -8.65, -8.65, -8.65, -8.65, -8.65, -8.65, -8.65, -8.38, -8.73, -8.73, -8.73, -8.19, -8.19, -8.19, -7.9, -7.9, -7.9, -7.9, -7.6, -7.6, -7.6, -6.98, -6.7, -6.34, -6.34, -5.95, -5.7, -5.7, -5.29, -5.06, -4.63, -3.97, -3.97, -3.52, -3.35, -2.86, -2.37, -2.23, -1.71, -1.61, -1.18, -1.18, -1.18, -0.56, -0.56, -0.61, -0.57, -0.57, -0.57, -0.57, -0.57, -0.57, -0.58, -0.58, -0.53, -0.59, -1.16, -1.16, -1.16, -1.16, -1.7, -1.7, -1.88, -1.76, -1.76, -1.98, -0.96, 0.0, 0.0, -1.05, -1.05, -1.14, 0.0, -0.96, -0.96, 0.0, 0.0, 0.0, 1.84, 1.96, 1.84, 0.0, -3.2, 0.95, 4.03, 4.81, 3.58, 2.68, -0.0, -0.0, -0.0, -0.0, -0.0, -0.0, -0.0, -0.0, -0.0, -0.0, -8.65, -8.65, -8.65, -8.65, -8.65, -8.65, -8.65, -8.38, -8.38, -8.38, -8.73, -8.49, -8.19, -8.19, -8.19, -7.9, -7.9, -7.6, -7.6, -7.6, -7.6, -6.98, -6.7, -6.34, -6.34, -5.95, -5.7, -5.7, -5.06, -5.06, -4.42, -4.2, -4.0, -3.52, -3.35, -2.86, -2.37, -2.23, -1.71, -1.71, -1.61, -1.18, -1.18, -1.1, -1.1, -0.61, -0.57, -0.57, -0.57, -0.57, -0.57, -0.57, -0.57, -0.58, -1.14, -1.14, -1.16, -1.16, -1.16, -1.16, -1.7, -1.7, -1.7, -2.2, -2.44, -1.98, -0.96, -0.88, -1.05, -2.16, -2.99, -2.99, -2.99, -0.96, 0.0, 0.0, 0.0, 1.03, 0.89, 1.84, 1.84, 0.0, 0.0, 4.29, 5.24, 3.83, 3.47, 2.68, 1.79, -0.0, -0.0, -0.0, -0.0, 0.0, -0.0, -0.0, -0.0, -0.0, -8.65, -8.65, -8.65, -8.65, -8.65, -8.65, -8.38, -8.38, -8.38, -8.15, -8.15, -8.15, -7.86, -8.19, -8.19, -7.9, -7.6, -7.6, -7.6, -7.6, -7.6, -6.98, -6.98, -6.63, -6.08, -5.7, -5.7, -5.06, -5.06, -4.63, -4.66, -4.2, -4.0, -3.52, -3.35, -2.89, -2.37, -2.23, -2.23, -1.71, -1.71, -1.73, -1.73, -1.18, -1.1, -1.1, -1.2, -1.12, -0.57, -0.57, -0.57, -1.12, -1.12, -1.14, -1.14, -1.14, -1.26, -1.16, -1.7, -1.7, -1.7, -1.7, -1.7, -2.4, -2.22, -1.23, -1.03, -0.96, -1.84, -2.99, -3.22, -3.79, -4.11, -3.22, -0.96, 0.0, 0.0, 0.0, 0.0, 0.89, 0.89, 1.03, 3.35, 4.98, 4.11, 3.58, 3.6, 3.13, 2.24, -0.0, -0.0, -1.2, -1.9, -1.9, -0.0, -0.0, -0.0, -0.0, -8.08, -8.08, -8.44, -8.44, -8.15, -8.15, -8.15, -8.15, -8.15, -8.15, -8.15, -8.15, -8.15, -7.86, -7.86, -7.59, -7.6, -7.6, -7.6, -7.3, -6.98, -6.98, -6.35, -6.35, -6.35, -5.98, -5.72, -5.32, -5.32, -4.66, -4.66, -4.0, -4.0, -3.35, -3.35, -2.89, -2.37, -2.37, -2.23, -2.23, -1.71, -1.61, -1.73, -1.73, -1.1, -1.1, -1.2, -1.2, -1.12, -1.12, -1.12, -1.12, -1.12, -1.14, -1.14, -1.14, -1.67, -1.84, -1.7, -1.7, -1.7, -1.7, -2.36, -2.4, -2.22, -1.58, -1.72, -0.89, -0.95, -1.03, -1.84, -3.22, -3.93, -3.93, -1.99, -0.96, 0.0, 0.0, 0.0, 0.0, 0.0, 1.98, 4.02, 3.72, 3.35, 3.48, 3.58, 2.98, 2.97, 1.2, -0.0, -0.99, -1.6, -1.4, -0.0, -0.0, -0.0, -0.0, -8.08, -8.08, -8.08, -8.44, -8.15, -8.15, -8.15, -8.15, -8.15, -8.15, -8.15, -8.15, -8.15, -8.15, -7.59, -7.59, -7.59, -7.3, -6.98, -6.98, -6.98, -6.98, -6.35, -6.35, -5.98, -5.72, -5.32, -5.32, -5.08, -4.66, -4.66, -4.0, -4.0, -3.35, -2.89, -2.89, -2.89, -2.37, -2.37, -2.23, -2.23, -1.71, -1.73, -1.73, -1.73, -1.1, -1.1, -1.2, -1.2, -1.2, -1.2, -1.12, -1.23, -1.14, -1.67, -1.67, -1.67, -1.84, -1.7, -1.7, -1.7, -1.84, -2.36, -2.18, -2.44, -2.22, -1.11, 0.0, 0.0, 0.0, -0.95, -0.96, -1.19, -2.23, -2.23, -1.83, -0.88, 0.0, 0.0, 0.0, 0.96, 2.8, 2.16, 1.73, 1.84, 2.76, 2.95, 2.68, 2.53, 1.74, -0.0, -0.0, -1.6, -1.6, -0.0, -0.0, -0.0, -0.0, -8.08, -8.08, -8.08, -8.08, -7.81, -7.81, -7.81, -7.81, -7.81, -7.81, -7.81, -7.55, -7.55, -7.55, -7.27, -7.59, -7.59, -7.28, -6.98, -6.69, -6.69, -6.35, -6.35, -5.72, -5.72, -5.72, -5.32, -5.08, -4.66, -4.66, -4.0, -4.0, -3.35, -3.56, -3.37, -2.89, -2.89, -2.89, -2.37, -2.23, -2.23, -2.23, -1.73, -1.73, -1.73, -1.63, -1.63, -1.76, -1.76, -1.2, -1.2, -1.76, -1.8, -1.8, -1.67, -1.67, -1.67, -1.84, -1.84, -1.7, -2.18, -2.36, -2.36, -2.36, -2.61, -2.48, -1.58, 0.0, 0.0, 0.0, 0.0, 0.0, 0.0, 0.0, -0.98, -2.2, -1.99, -0.96, 0.0, 1.05, 2.99, 4.43, 3.72, 1.96, 1.73, 2.8, 2.99, 2.76, 2.0, 0.87, -0.0, -0.0, -0.0, -1.13, -0.0, -0.0, -0.0, -0.0, -8.08, -8.08, -8.08, -8.08, -8.08, -7.81, -7.81, -7.81, -7.81, -7.55, -7.55, -7.55, -7.55, -7.55, -7.55, -7.27, -6.97, -6.97, -6.97, -6.97, -6.35, -6.35, -6.08, -5.72, -5.72, -5.08, -5.08, -4.66, -4.66, -4.44, -4.0, -4.0, -3.35, -3.56, -3.56, -2.89, -2.89, -2.89, -2.89, -2.23, -2.23, -2.4, -2.26, -1.73, -1.73, -1.63, -1.63, -1.76, -1.76, -1.76, -1.76, -1.76, -1.65, -1.8, -1.67, -1.67, -1.67, -1.84, -2.36, -2.36, -2.18, -2.18, -2.36, -2.36, -2.84, -2.86, -2.23, -1.11, -0.54, -0.94, -0.89, 0.0, 0.0, 0.0, 0.0, -1.99, -2.16, -0.96, 0.0, 1.99, 4.11, 5.24, 4.98, 4.11, 2.67, 1.96, 2.29, 1.84, 1.55, 0.98, -0.0, -0.0, -0.0, -1.13, -0.0, -0.0, -0.0, -0.0, -7.73, -7.73, -8.08, -8.08, -8.08, -8.08, -7.55, -7.55, -7.55, -7.55, -7.55, -7.55, -7.55, -7.55, -7.27, -6.97, -6.97, -6.67, -6.67, -6.35, -6.35, -6.35, -5.72, -5.72, -5.08, -5.08, -4.66, -4.66, -4.44, -4.0, -4.0, -3.8, -3.35, -3.56, -3.56, -3.56, -2.89, -2.89, -2.89, -2.73, -2.23, -2.4, -2.26, -2.26, -1.73, -1.73, -1.76, -1.76, -1.76, -1.76, -1.76, -1.76, -1.65, -1.8, -1.8, -1.67, -2.16, -2.16, -2.36, -2.36, -2.18, -2.36, -2.36, -2.82, -2.84, -3.15, -2.23, -1.8, -1.19, -1.73, -1.73, -0.95, -0.96, 0.0, -1.05, -1.99, -2.76, -1.84, 0.0, 1.05, 4.11, 4.43, 5.6, 6.17, 3.55, 1.73, 1.52, 1.72, 0.76, -0.0, -0.0, -0.99, -0.99, -1.13, -0.0, -0.0, -0.0, -0.0, -8.0, -8.0, -7.73, -7.73, -7.85, -7.85, -7.55, -7.55, -7.55, -7.55, -7.55, -7.55, -7.27, -7.27, -6.95, -6.95, -6.67, -6.35, -6.35, -6.35, -6.35, -6.0, -6.0, -5.08, -5.08, -5.08, -4.66, -4.66, -4.44, -4.0, -4.0, -4.0, -3.35, -3.35, -3.56, -3.56, -2.89, -2.89, -2.89, -2.89, -2.73, -2.4, -2.4, -2.26, -2.26, -2.26, -1.76, -1.76, -1.76, -1.76, -1.76, -1.76, -1.65, -2.32, -2.32, -2.32, -2.16, -2.16, -2.36, -2.36, -2.36, -2.36, -2.36, -2.82, -2.84, -3.2, -3.16, -2.23, -1.73, -1.73, -1.73, -0.95, -1.03, -0.96, -1.99, -1.99, -3.22, -1.99, -0.88, 1.99, 2.99, 3.22, 4.89, 5.73, 3.97, 1.73, 1.01, 0.78, 0.82, -0.0, -0.0, -0.99, -0.99, -1.13, -0.0, -0.0, -0.0, -0.0, -8.0, -8.0, -7.8, -7.51, -7.51, -7.51, -7.51, -7.23, -7.23, -6.95, -6.95, -6.95, -6.95, -6.95, -6.95, -6.95, -6.65, -6.35, -6.35, -6.06, -5.72, -5.72, -5.72, -5.34, -5.34, -4.66, -4.44, -4.44, -4.0, -4.0, -4.0, -4.0, -3.35, -3.35, -3.35, -3.35, -3.05, -2.89, -2.89, -2.89, -2.73, -2.4, -2.4, -2.26, -2.26, -2.26, -2.29, -2.29, -2.29, -2.29, -2.29, -2.29, -2.29, -2.32, -2.32, -2.32, -2.32, -2.32, -2.36, -2.36, -2.36, -2.82, -2.82, -2.82, -3.08, -3.2, -3.16, -2.23, -2.2, -1.67, -0.57, 0.0, 0.0, 0.0, 0.0, -0.96, -1.05, -1.05, 0.0, 1.05, 2.16, 1.84, 4.11, 5.36, 3.72, 0.89, -0.0, -0.0, -0.0, -0.0, -0.0, -0.0, -0.0, -0.0, -0.0, -0.0, -0.0, -0.0, -7.44, -7.44, -7.8, -7.8, -7.51, -7.51, -7.51, -7.25, -6.95, -6.95, -6.95, -6.95, -6.95, -6.95, -6.65, -6.65, -6.34, -6.34, -6.06, -5.72, -5.72, -5.72, -5.34, -5.34, -5.09, -4.69, -4.69, -4.44, -4.0, -4.0, -4.0, -4.0, -3.35, -3.35, -3.35, -3.35, -3.05, -2.89, -2.89, -2.89, -2.73, -2.23, -2.4, -2.26, -2.26, -2.26, -2.26, -2.29, -2.29, -2.29, -2.29, -2.29, -2.29, -2.14, -2.32, -2.32, -2.32, -2.32, -2.36, -2.36, -2.82, -2.82, -2.82, -2.82, -2.82, -3.49, -2.86, -2.86, -2.44, -1.7, -1.14, 0.0, 0.0, 0.0, 0.0, 0.0, 0.0, 0.0, 0.0, 0.0, 0.88, 1.99, 4.11, 5.26, 4.29, 0.89, -0.0, -0.0, -0.0, -0.78, -0.81, -0.98, -0.0, -0.0, -0.0, -0.0, -0.0, -0.0, -7.72, -7.72, -7.44, -7.44, -7.44, -7.17, -7.17, -7.25, -7.25, -6.95, -6.95, -6.95, -6.65, -6.65, -6.34, -6.06, -6.06, -5.72, -5.72, -5.72, -5.72, -5.09, -5.09, -5.09, -4.69, -4.69, -4.69, -4.69, -4.0, -4.0, -4.0, -3.8, -3.35, -3.35, -3.35, -3.35, -2.89, -2.89, -2.89, -2.89, -2.23, -2.23, -2.4, -2.4, -2.26, -2.26, -2.26, -2.26, -2.44, -2.44, -2.29, -2.29, -2.29, -2.29, -2.49, -2.32, -2.32, -2.32, -2.8, -3.04, -2.82, -2.82, -3.04, -3.04, -3.22, -3.49, -3.48, -2.86, -2.48, -1.73, -1.7, -0.58, 0.0, 0.0, 0.0, 0.0, 0.0, 0.0, 0.0, 0.0, 0.0, 1.05, 3.22, 4.98, 4.92, 3.22, -0.0, -0.0, -0.0, -0.95, -1.84, -1.83, -1.98, -1.2, -1.58, 0.0, 0.0, 0.0, -7.72, -7.72, -7.44, -7.44, -7.44, -7.17, -7.17, -7.25, -7.25, -6.95, -6.95, -6.95, -6.65, -6.65, -6.34, -6.06, -6.06, -5.72, -5.72, -5.72, -5.72, -5.09, -5.09, -5.09, -4.69, -4.69, -4.69, -4.69, -4.0, -4.0, -4.0, -3.8, -3.35, -3.35, -3.35, -3.35, -2.89, -2.89, -2.89, -2.89, -2.23, -2.23, -2.4, -2.4, -2.26, -2.26, -2.26, -2.26, -2.44, -2.44, -2.29, -2.29, -2.29, -2.29, -2.49, -2.32, -2.32, -2.32, -2.8, -3.04, -2.82, -2.82, -3.04, -3.04, -3.22, -3.49, -3.48, -2.86, -2.48, -1.73, -1.7, -0.58, 0.0, 0.0, 0.0, 0.0, 0.0, 0.0, 0.0, 0.0, 0.0, 1.05, 3.22, 4.65, 5.4, 5.36, 3.79, 0.95, -0.0, -0.95, -1.98, -1.99, -3.16, -2.53, -2.8, 0.0, 0.0, 0.0]}]